GFSGL_sfc_temp_000.txt.gz
Temp
83 82 82 82 82 81 80 80 80 80 80 79 78 77 77 76 76 75 74 74 72 73 72 71 71 70 69 69 68 65 62 62 60 67 72 75 73 71 73 73 73 72 74
83 82 81 81 82 82 80 80 81 79 79 78 78 77 76 76 75 74 74 74 73 71 72 71 70 71 67 66 65 62 61 61 61 62 68 71 72 72 72 72 72 74 71
84 80 81 80 79 79 79 80 80 79 78 78 78 76 75 76 75 75 74 73 73 73 72 71 70 69 66 65 63 61 60 60 60 60 63 70 71 74 71 71 71 71 71
85 82 79 78 79 79 79 80 80 78 78 78 76 76 75 76 76 75 74 72 71 73 72 71 70 68 66 64 62 61 60 58 58 58 59 63 66 72 70 69 69 71 73
82 82 80 80 80 79 78 79 79 78 78 78 77 76 77 78 80 76 74 73 71 71 71 70 70 70 68 65 62 61 59 57 57 57 57 59 63 68 69 72 68 70 72
79 80 81 80 79 78 79 79 78 78 79 77 76 76 76 79 69 70 70 72 72 70 69 69 69 69 67 65 64 64 62 58 57 57 57 57 59 63 67 68 69 68 66
80 81 80 80 79 79 79 78 78 78 77 76 76 76 75 75 63 66 68 69 69 69 68 67 66 67 66 67 66 64 64 64 62 59 58 59 59 62 66 67 68 68 71
79 80 80 80 79 78 78 77 77 77 76 74 74 75 74 75 62 62 64 68 69 69 69 68 66 66 68 66 65 64 63 63 64 65 62 62 63 65 65 68 69 69 70
80 79 80 80 78 78 77 76 76 75 74 74 75 74 72 72 61 58 60 66 67 68 70 68 68 66 64 60 61 60 58 61 65 62 61 61 61 63 63 65 66 66 66
80 80 81 80 79 78 77 76 75 77 74 76 75 75 72 73 59 58 62 60 61 64 68 68 62 61 56 54 58 58 57 58 59 60 61 63 61 62 62 63 65 66 66
84 83 81 81 79 80 78 74 72 72 71 71 72 73 74 71 69 60 58 62 64 65 66 68 69 56 52 52 52 58 55 56 59 59 58 60 66 65 64 65 67 69 66
83 83 82 80 80 78 78 75 72 71 70 68 69 71 72 67 59 58 58 56 61 65 66 69 66 50 50 52 55 53 54 56 57 57 57 56 57 63 66 69 69 70 71
85 82 82 82 80 80 77 73 75 69 67 69 66 69 64 68 64 58 57 56 58 60 68 63 56 52 53 55 53 54 55 56 55 56 56 56 57 59 63 69 70 71 71
81 81 80 77 77 75 74 76 67 69 69 70 64 67 68 64 58 58 64 66 63 66 62 64 61 58 55 56 55 55 55 55 55 55 56 58 58 57 57 60 67 68 67
79 79 77 78 75 76 60 57 69 57 58 67 64 66 63 64 57 48 48 56 58 56 49 63 64 63 58 56 55 54 54 54 53 56 56 56 57 56 56 57 59 62 65
76 78 77 76 68 74 66 62 46 46 44 42 44 52 57 48 45 44 44 43 44 45 58 62 61 60 57 55 53 52 53 54 52 53 55 55 57 56 55 56 57 57 56
74 76 78 71 77 75 72 69 64 52 46 45 46 46 47 44 45 44 45 45 49 51 63 60 58 58 56 55 54 53 52 53 54 53 53 54 54 57 56 55 56 56 55
76 61 76 77 76 73 71 69 69 65 62 62 48 48 46 47 47 45 46 50 63 61 60 58 56 56 54 54 54 54 55 55 56 54 55 55 54 54 57 56 55 55 55
77 77 76 75 69 69 71 69 69 64 63 63 62 51 50 47 47 47 50 60 59 58 57 55 53 51 49 49 49 49 53 51 52 55 56 55 55 53 52 57 57 54 54
73 60 66 75 70 70 68 66 66 63 62 62 60 56 55 56 58 57 57 57 57 57 54 52 51 49 48 47 47 48 49 53 53 54 56 56 56 54 54 53 56 55 56
70 71 60 71 70 68 67 64 64 64 61 60 58 53 43 57 55 56 56 57 57 58 57 57 56 55 53 52 49 50 51 52 53 55 56 56 55 56 56 55 56 57 53
66 68 71 67 64 66 66 65 67 65 65 62 59 55 45 57 56 55 57 58 59 59 60 58 57 57 56 54 52 50 50 49 51 51 53 55 55 55 55 56 55 55 55
68 71 69 64 63 59 61 67 67 67 65 65 64 59 57 57 57 55 56 59 60 59 59 58 55 55 55 54 53 48 45 44 46 49 47 53 54 54 54 54 55 54 54
70 69 67 66 64 64 65 66 65 58 61 65 65 64 64 60 58 57 58 60 59 58 58 58 55 53 51 51 50 49 42 39 43 44 47 53 53 52 55 54 54 54 54
71 70 70 69 66 65 66 66 66 67 65 64 64 63 63 62 62 61 61 60 59 59 58 57 57 54 50 48 46 44 36 33 40 35 45 51 53 51 54 55 55 54 54
72 71 70 70 69 67 66 65 66 66 64 64 63 62 62 61 61 60 60 59 60 58 58 58 56 56 53 48 42 35 32 33 36 34 39 54 51 52 52 53 54 55 54

GFSGL_sfc_temp_003.txt.gz
Temp
73 73 73 71 71 71 70 70 70 70 70 70 70 70 69 69 69 68 68 68 67 66 66 65 65 64 61 60 59 58 57 57 56 62 63 67 70 69 71 70 71 71 71
73 73 72 72 73 70 70 70 71 70 70 70 70 69 69 69 69 68 67 68 67 65 64 63 64 67 62 61 59 58 57 57 57 55 60 63 64 68 70 68 71 74 70
74 73 71 72 73 70 70 70 70 70 70 70 70 69 69 69 68 68 67 67 66 66 64 64 64 63 60 59 59 58 57 58 57 55 56 62 62 65 66 68 68 69 71
76 73 71 71 71 70 70 70 70 70 69 69 69 69 68 69 69 68 68 66 66 66 66 65 64 63 61 60 59 58 57 55 55 54 55 57 59 63 62 63 65 67 69
75 74 73 70 70 70 70 70 70 70 70 70 69 68 69 70 73 68 68 66 65 64 64 64 64 65 67 62 59 59 57 56 54 54 55 57 59 60 59 61 63 66 68
75 74 73 73 71 70 70 69 69 69 69 69 68 68 68 72 66 70 67 63 64 63 62 63 63 67 65 66 66 66 63 57 54 56 57 56 57 58 60 59 61 63 63
74 72 73 73 71 70 71 69 68 68 68 68 67 67 67 67 65 65 66 62 62 61 62 61 62 64 64 61 63 64 63 62 63 59 56 57 57 59 60 59 60 61 65
69 72 71 71 71 71 70 68 69 68 68 67 66 67 66 67 65 62 64 60 60 61 61 62 61 61 61 60 59 58 58 58 60 62 60 61 61 61 60 61 61 62 66
68 70 71 72 71 69 68 68 68 67 67 66 67 66 65 64 61 60 60 60 60 59 61 62 62 60 58 58 56 55 55 58 63 62 61 61 61 60 60 59 59 60 61
71 72 72 73 70 69 69 69 69 68 67 65 64 65 65 61 60 58 59 59 56 58 60 61 59 57 55 55 55 55 55 56 57 59 60 60 61 60 62 60 60 58 62
75 72 73 72 72 71 70 68 66 66 61 62 63 64 65 61 60 57 57 58 59 58 57 59 56 54 52 52 52 54 54 55 57 57 57 58 59 59 59 61 61 61 61
73 73 72 72 75 73 66 66 65 65 62 62 61 62 61 61 58 58 57 55 58 56 56 59 53 51 51 52 52 53 53 55 55 55 56 56 57 57 57 60 62 62 64
71 73 73 73 71 67 65 66 64 62 62 61 60 59 58 59 57 57 55 57 57 57 55 55 52 51 52 52 53 54 54 54 53 54 54 55 56 58 58 58 64 63 65
61 65 70 67 67 67 62 61 60 57 58 60 58 57 56 55 51 51 53 53 55 54 53 52 54 56 54 54 53 54 54 53 53 52 53 55 56 57 57 57 57 58 64
61 70 68 67 63 56 52 53 57 49 51 55 53 53 53 50 49 45 46 49 48 48 45 53 55 54 50 50 52 53 52 52 51 52 52 53 53 55 57 57 57 57 56
68 66 63 64 59 57 53 50 45 46 43 44 45 50 49 48 45 44 43 43 43 45 49 50 49 48 48 51 52 51 52 52 51 52 52 52 52 52 55 57 56 56 55
66 64 62 62 62 61 56 53 49 48 45 44 45 46 47 47 45 44 44 43 46 51 50 47 46 47 50 50 50 51 50 52 50 52 52 51 50 51 52 55 56 55 55
65 62 63 62 61 60 59 59 57 53 51 49 45 46 45 44 44 43 46 52 53 50 47 44 44 44 47 47 48 47 49 52 53 52 54 55 51 50 51 53 54 54 54
63 62 61 59 59 59 59 57 55 54 53 52 51 47 46 45 45 46 48 49 49 48 46 46 43 42 42 45 47 47 48 50 53 54 55 53 53 51 50 51 52 50 51
60 61 61 59 59 58 57 55 54 52 52 51 49 48 48 49 48 50 50 49 49 47 47 45 43 42 42 42 43 46 48 47 51 50 51 52 52 53 52 50 50 50 49
61 60 61 59 58 56 55 54 53 52 51 50 47 45 43 47 47 47 48 47 47 48 48 47 46 43 42 42 41 41 42 43 44 45 45 48 50 50 51 53 52 51 49
60 58 59 60 57 56 55 55 54 53 52 49 46 44 45 47 46 46 48 52 48 49 47 46 45 44 42 40 38 37 37 38 39 41 42 43 47 48 49 50 51 52 51
64 59 56 55 55 56 58 59 59 58 57 55 51 47 46 47 46 45 47 48 48 47 46 45 43 41 41 39 37 35 34 34 34 39 38 41 45 46 47 47 48 48 50
59 58 56 54 54 53 57 55 52 55 56 56 52 50 49 48 47 47 47 47 47 47 45 43 42 40 39 37 36 34 32 31 33 35 36 39 43 45 47 47 47 49 48
59 58 57 55 53 52 53 52 52 54 56 53 52 52 50 50 48 48 47 47 47 46 45 44 41 41 40 38 35 34 32 33 35 35 36 41 43 44 45 45 46 45 48
59 63 57 55 54 53 53 52 52 52 52 52 51 50 49 48 48 47 47 47 46 46 45 44 44 42 41 38 35 34 32 33 33 33 36 42 41 41 42 44 46 46 46

GFSGL_sfc_temp_006.txt.gz
Temp
73 68 69 69 69 68 67 67 67 67 67 67 67 67 67 67 67 66 65 65 65 64 63 63 63 62 59 59 58 57 56 55 54 55 56 61 61 62 65 64 67 69 70
73 70 71 70 68 67 67 68 67 67 67 67 67 66 66 67 66 65 65 66 65 63 63 61 62 64 60 59 58 57 56 56 55 54 56 58 59 62 62 61 66 70 70
71 70 67 68 68 67 67 67 67 67 67 67 66 66 66 66 66 66 65 65 64 64 63 61 62 61 59 58 58 57 57 57 56 56 56 58 58 60 60 61 61 64 69
71 70 68 69 69 67 67 68 67 67 66 66 66 67 66 66 66 66 65 64 63 64 64 63 62 61 61 59 58 58 57 56 55 56 56 56 57 61 60 57 58 60 63
71 71 69 71 70 68 67 69 67 66 66 66 66 66 66 66 70 66 65 64 63 63 63 63 62 63 65 63 59 59 57 56 56 57 57 55 57 58 58 62 58 59 61
70 71 68 70 68 69 71 68 66 66 66 66 66 66 66 69 67 65 66 63 63 61 61 61 61 65 64 65 65 64 62 56 56 55 56 55 56 58 61 59 57 56 55
70 69 67 68 67 71 72 67 67 66 65 66 66 65 65 65 64 63 66 62 61 60 59 59 60 62 63 61 62 63 62 63 62 57 55 56 56 59 59 57 57 56 57
68 68 70 69 69 72 69 67 67 65 66 67 65 65 64 65 62 61 63 61 59 59 59 59 59 59 59 59 58 56 56 56 57 58 57 60 60 62 59 58 57 57 58
67 68 69 71 71 70 67 66 67 65 64 64 64 63 62 63 61 59 60 59 58 58 58 59 59 58 59 58 56 54 54 55 60 60 60 60 60 60 60 58 56 55 55
67 70 72 72 71 69 68 66 69 65 65 64 63 63 61 61 60 57 58 58 56 58 57 58 58 57 55 54 53 52 54 56 55 56 58 58 60 60 61 59 57 56 55
69 69 68 71 71 71 69 66 65 64 61 61 62 63 63 61 60 56 55 57 57 56 55 58 54 54 52 51 51 50 52 53 55 55 56 56 57 58 57 58 58 58 57
63 63 63 65 67 70 67 65 63 62 61 60 61 60 58 57 55 55 55 54 56 54 55 56 52 51 51 51 51 52 53 54 54 54 54 54 55 55 56 57 59 61 63
61 61 63 61 61 64 65 63 61 60 59 59 59 57 55 55 53 53 54 54 55 52 52 52 52 50 51 52 53 54 54 53 52 51 51 52 54 55 56 57 59 60 61
60 60 62 60 59 63 63 62 61 59 57 57 56 54 53 51 50 50 52 50 54 55 52 48 52 55 53 52 50 51 51 52 51 50 51 52 54 54 54 56 57 57 59
61 61 61 62 62 58 55 54 56 49 52 54 52 53 54 50 50 45 46 48 51 48 46 50 51 53 52 48 46 48 50 50 48 49 51 50 51 52 53 55 56 56 55
58 59 61 62 59 54 51 49 46 45 43 43 45 49 48 48 45 44 43 42 42 43 47 46 46 46 45 43 43 45 47 47 46 48 50 50 50 50 51 53 55 55 54
61 62 60 59 57 53 51 51 50 49 45 43 43 45 47 46 43 43 42 42 43 47 45 43 42 42 41 41 41 42 44 49 47 48 48 50 50 50 50 51 52 52 53
61 58 58 57 58 55 53 52 50 50 48 48 45 44 44 44 44 43 46 47 46 45 42 41 43 41 40 40 40 41 44 49 51 49 51 51 47 49 49 49 49 50 50
60 60 60 58 58 57 56 55 53 52 50 49 47 45 44 44 44 43 46 50 44 43 42 42 42 42 41 40 40 41 42 43 46 45 46 48 49 46 48 49 49 48 49
59 58 58 57 55 54 53 53 52 51 50 48 47 47 47 47 46 46 47 49 45 43 43 43 42 40 40 39 38 39 40 40 41 42 42 44 46 47 47 47 48 48 48
60 60 59 56 55 54 53 52 52 50 49 47 46 46 43 46 45 45 44 44 44 44 43 42 40 40 39 37 36 35 37 37 37 38 40 41 44 44 46 48 50 50 49
58 58 59 57 55 54 53 52 53 51 50 47 45 46 44 45 44 44 44 45 45 44 43 41 39 37 36 34 33 34 34 34 35 36 37 39 43 44 45 46 48 50 51
58 57 56 54 54 53 53 54 55 54 53 52 50 49 45 44 44 43 45 45 43 42 41 40 38 36 35 34 33 32 32 32 32 34 35 39 41 42 43 44 45 47 49
55 54 54 53 52 52 52 52 52 53 56 54 51 50 45 45 45 45 45 44 43 42 40 39 38 36 35 33 32 31 31 31 32 33 36 39 40 41 43 43 44 46 46
54 56 53 52 51 50 50 50 49 50 51 55 52 48 46 45 45 45 44 44 42 40 40 39 38 38 37 35 34 32 32 33 34 35 37 40 41 41 41 41 41 44 45
54 56 53 51 51 50 49 49 49 49 48 49 47 45 47 46 45 44 43 43 42 41 40 38 38 39 38 36 35 33 31 33 34 33 37 39 39 39 40 41 43 42 43

GFSGL_sfc_temp_009.txt.gz
Temp
73 68 67 67 66 66 65 65 65 65 65 65 65 65 65 65 65 64 63 64 63 62 62 62 62 61 59 58 57 56 54 54 53 52 54 57 57 58 60 60 62 62 64
73 68 69 68 67 66 65 66 65 65 65 66 65 65 65 65 64 64 63 64 63 62 62 61 61 63 60 58 57 56 55 54 54 53 54 54 56 60 59 57 61 65 64
70 69 67 66 65 66 67 67 66 65 65 65 65 64 64 65 64 64 63 63 63 63 63 61 61 60 59 58 58 57 56 57 55 55 56 61 56 59 58 58 58 60 63
70 70 67 67 67 69 69 68 67 66 66 67 65 65 65 65 65 64 64 63 63 63 62 61 61 60 60 59 58 58 58 56 55 54 57 59 57 58 58 56 57 62 62
72 72 69 68 67 68 69 69 68 68 68 68 65 65 65 65 68 64 64 63 63 62 62 61 61 63 66 62 60 59 57 57 56 55 57 57 55 55 56 59 58 60 61
71 72 68 66 66 68 68 69 69 69 68 66 64 65 64 68 66 65 66 63 62 61 60 60 60 64 63 64 65 64 61 57 56 55 56 54 54 56 57 58 57 55 54
72 70 67 67 67 67 69 69 69 69 67 66 64 64 64 65 62 63 65 61 60 59 58 57 58 61 62 60 61 62 62 62 62 57 54 54 53 56 58 56 56 55 56
69 67 68 66 68 68 70 70 69 68 66 65 63 64 63 64 59 61 62 61 59 58 58 58 57 57 58 58 57 55 55 55 55 57 55 56 56 58 59 58 56 56 57
68 67 67 68 67 68 67 69 71 65 64 64 63 62 63 63 61 59 60 59 58 58 57 58 57 56 58 59 55 53 52 53 58 59 59 58 59 59 60 57 55 54 53
68 67 67 67 67 65 67 68 66 65 65 63 63 63 61 62 59 57 57 57 56 55 57 58 58 55 56 54 52 50 51 51 52 55 56 56 58 58 60 58 56 53 53
65 65 65 65 65 65 65 64 65 63 62 61 62 62 62 61 60 56 55 56 56 56 55 56 54 55 52 52 51 50 50 51 52 53 54 55 56 56 57 57 57 55 53
63 62 61 62 63 63 62 61 63 63 61 60 60 60 60 57 54 54 53 53 57 53 53 52 52 51 49 51 51 52 52 53 50 52 51 51 52 53 55 56 57 57 58
62 61 60 61 62 63 61 60 60 61 60 59 58 58 56 55 53 52 52 53 54 52 51 51 51 49 50 51 53 53 52 48 49 49 49 51 52 53 54 55 57 58 59
61 60 61 61 61 61 61 60 61 60 59 58 58 56 53 51 51 51 51 49 52 51 51 50 51 52 52 53 51 47 47 47 48 46 48 51 52 52 52 54 54 54 56
61 61 60 60 59 58 54 54 57 52 53 56 55 54 52 50 50 47 46 48 47 46 46 50 48 47 47 45 43 44 44 45 44 45 46 48 49 50 51 52 53 53 53
59 59 60 59 59 56 52 49 45 44 43 43 45 49 47 47 46 44 42 42 41 43 49 45 44 42 41 40 40 41 42 45 44 44 46 47 46 47 49 50 51 51 52
57 58 58 58 56 53 53 50 49 47 43 41 43 44 46 46 44 42 41 41 42 46 44 42 41 40 40 39 39 39 40 42 43 43 43 45 46 45 48 48 49 50 50
58 56 58 58 56 53 52 52 52 49 47 47 43 44 44 45 44 44 45 47 47 47 41 40 40 39 39 38 38 38 39 41 42 43 44 45 44 43 45 46 47 48 49
58 59 56 57 56 54 53 53 52 49 48 47 46 45 43 42 44 44 45 46 44 46 41 40 40 39 38 38 37 37 38 38 39 39 41 42 43 42 42 45 46 48 48
57 58 56 56 56 54 55 54 51 51 48 47 47 47 46 46 45 45 44 44 43 42 41 40 40 38 38 37 36 35 36 36 36 36 38 40 42 43 44 43 45 46 47
55 56 57 55 53 53 52 52 52 51 50 49 47 46 45 46 44 43 43 42 43 42 41 40 39 37 35 34 33 33 34 35 35 35 36 38 40 40 43 45 47 49 47
56 55 54 54 53 53 54 51 51 50 50 50 48 47 42 48 44 43 43 43 43 42 41 39 37 35 34 33 32 33 32 33 33 34 36 38 39 40 42 44 45 48 49
54 55 54 53 53 52 51 51 51 50 50 50 50 50 47 48 43 42 43 43 42 40 39 38 36 34 32 31 31 32 32 31 31 32 34 37 38 39 39 40 42 42 44
54 54 54 53 52 51 51 51 51 48 49 49 50 48 50 46 43 43 43 42 41 40 39 37 36 35 33 31 31 31 31 31 31 32 35 37 38 39 39 39 40 42 42
52 52 51 50 49 49 49 49 49 48 49 49 49 49 45 46 43 43 43 41 40 39 38 37 35 36 35 34 33 33 33 33 34 35 36 38 39 40 39 38 39 40 42
53 54 56 52 49 48 47 47 47 47 47 48 47 44 45 45 44 43 42 41 39 39 38 36 36 37 37 36 35 34 31 33 34 33 36 37 37 38 38 39 40 40 40

GFSGL_sfc_temp_012.txt.gz
Temp
73 71 71 68 69 67 67 67 67 66 67 67 67 67 67 67 68 66 66 67 66 66 66 65 66 66 66 64 63 62 60 58 57 63 62 65 64 64 65 66 66 66 68
74 70 70 69 68 68 67 67 67 67 66 67 67 67 67 68 67 67 67 68 67 66 66 66 66 67 64 64 63 62 61 60 58 58 63 63 62 65 64 62 65 68 67
73 69 68 68 67 67 67 67 66 67 67 67 68 67 67 67 67 67 67 67 66 66 66 66 66 65 64 64 62 62 61 62 59 58 61 65 64 66 63 64 63 64 66
73 70 68 67 68 67 66 66 66 67 66 66 67 67 67 67 67 68 67 66 66 67 67 66 66 65 64 64 63 62 62 60 60 58 60 62 63 65 63 61 61 66 65
72 70 70 69 68 67 66 66 66 67 67 68 68 67 67 68 70 68 67 67 66 67 66 66 66 65 65 65 63 63 61 60 60 59 59 61 62 62 61 64 61 63 64
71 71 71 68 67 67 66 66 66 68 67 67 67 67 67 69 66 65 67 67 67 66 66 66 64 65 65 64 64 64 64 61 60 59 60 58 60 62 63 61 61 59 57
71 71 69 66 67 66 66 65 65 67 67 67 67 67 67 68 63 62 64 66 66 65 63 63 63 64 64 64 63 62 62 62 62 61 58 59 59 61 61 59 59 58 58
70 70 67 67 66 66 66 66 66 69 69 67 66 66 65 66 60 60 63 65 64 64 63 62 62 62 62 62 62 61 61 61 61 62 60 60 61 61 60 60 57 56 58
69 68 68 68 67 67 66 66 67 66 66 66 67 65 64 65 60 59 61 64 63 63 62 62 61 61 60 59 60 59 59 60 61 59 59 58 58 58 59 58 55 55 53
68 68 68 68 69 67 67 66 66 66 66 65 64 64 62 64 60 57 59 61 61 62 60 61 59 59 55 54 58 56 55 58 57 57 59 59 59 59 59 59 57 53 53
67 67 67 68 66 66 65 66 65 64 63 63 63 64 64 64 63 57 55 61 62 60 60 61 59 55 52 52 51 55 55 55 55 55 55 57 57 57 58 59 58 55 53
65 65 65 65 66 65 63 64 64 63 62 63 63 62 64 63 55 55 53 54 58 59 59 59 57 51 50 51 53 52 52 54 54 53 54 54 53 55 57 56 56 55 56
62 61 62 63 63 63 62 62 61 62 61 62 62 62 61 59 56 51 51 52 55 58 58 55 52 49 49 52 52 53 52 52 52 51 51 51 53 55 55 55 57 56 57
61 61 61 62 61 62 62 60 61 61 61 61 60 60 60 57 56 56 57 57 54 56 54 55 53 54 52 54 53 51 51 52 52 49 50 51 53 53 52 54 52 53 53
62 61 61 61 61 59 51 54 60 56 57 59 60 60 57 56 57 51 52 56 56 52 51 54 53 55 53 52 52 50 50 51 50 50 49 49 50 51 50 52 51 51 51
62 61 60 60 59 56 54 52 45 44 44 43 44 54 54 49 44 43 43 41 40 42 53 54 52 51 51 50 50 50 51 50 50 50 50 49 49 48 48 50 51 50 50
61 60 60 59 57 56 55 53 52 48 42 41 43 44 46 46 44 42 41 41 42 46 54 52 51 50 49 49 49 49 49 49 48 50 48 49 50 48 48 48 50 49 50
61 54 60 60 59 56 56 55 54 53 53 52 44 45 42 42 43 42 42 46 53 52 53 50 50 49 49 49 48 48 48 49 49 48 48 49 49 48 48 48 47 47 48
60 61 61 60 58 55 55 55 54 54 53 52 50 46 42 42 43 43 44 54 53 52 51 50 49 50 49 48 48 47 46 47 46 47 47 47 48 49 48 49 48 47 48
60 58 57 58 55 55 55 55 53 53 52 53 53 53 52 51 53 53 52 51 52 51 51 51 49 49 48 47 46 45 46 46 46 47 47 47 48 50 50 49 49 47 48
60 60 58 58 57 57 57 56 55 54 54 54 54 53 47 55 53 52 52 51 51 52 51 50 49 48 46 45 45 46 46 46 46 46 47 47 48 48 51 52 52 52 52
60 59 59 59 57 56 56 55 55 56 55 55 54 53 43 55 53 53 52 52 53 52 52 49 48 47 46 46 45 46 46 45 45 45 46 47 48 49 50 51 52 51 51
59 60 58 57 57 54 56 56 56 56 56 56 55 53 51 52 50 51 51 52 52 50 49 48 46 45 44 44 44 44 45 46 44 43 45 47 48 48 50 50 50 50 50
59 59 58 57 56 57 57 56 57 52 57 55 54 54 55 54 53 52 52 52 50 49 48 47 47 46 44 44 44 45 44 44 44 45 45 47 48 48 50 51 50 50 50
58 58 58 58 56 56 55 57 57 57 57 56 55 55 55 55 53 53 52 51 50 49 48 47 47 46 44 44 44 45 40 34 40 37 48 48 49 48 49 50 50 51 50
58 58 58 57 56 55 55 55 55 55 56 56 55 55 54 54 54 53 51 50 50 49 48 47 47 46 46 46 45 40 33 33 40 33 48 50 49 50 50 50 50 51 50

GFSGL_sfc_temp_015.txt.gz
Temp
82 82 81 79 78 76 78 77 72 77 76 77 77 77 78 77 77 75 76 77 75 75 75 75 75 75 77 78 77 76 74 72 69 75 78 75 71 72 75 76 76 76 78
84 82 81 78 74 77 71 76 78 74 74 76 76 75 76 76 77 76 76 77 75 74 76 75 75 77 73 73 74 73 74 73 70 67 73 75 73 73 73 72 74 78 77
85 83 80 77 74 74 76 74 75 74 74 75 73 72 73 75 76 77 75 76 76 75 76 76 76 75 73 74 74 75 75 73 72 66 70 75 75 76 74 73 73 74 76
87 84 80 77 77 75 70 69 67 68 70 71 70 71 73 75 76 77 77 75 75 77 76 76 76 75 74 73 73 72 72 72 73 67 69 72 74 75 73 71 72 76 75
84 82 79 78 77 74 71 68 67 66 66 67 69 71 72 71 78 76 76 76 75 76 77 77 77 74 71 70 74 73 71 72 73 72 68 71 73 73 71 73 71 73 74
83 81 80 77 75 72 71 71 69 66 67 67 68 70 70 73 69 66 71 77 76 75 75 76 76 70 69 65 65 65 67 68 68 68 67 67 67 69 72 70 70 68 66
81 80 78 76 73 73 73 70 69 65 66 68 69 71 71 74 64 63 65 74 74 74 75 74 74 77 68 72 68 64 64 63 63 65 62 65 65 68 67 65 64 64 63
79 78 77 75 74 73 73 70 69 69 65 68 70 71 71 75 62 61 63 70 72 69 72 74 71 72 71 69 70 70 71 71 70 71 68 68 68 68 65 63 59 58 61
79 78 75 75 74 72 71 69 68 68 69 70 72 71 72 74 59 59 63 70 71 70 73 71 70 70 63 59 68 66 67 69 66 60 59 59 58 59 60 59 57 58 58
78 77 76 75 74 72 69 68 69 70 70 70 71 71 69 72 61 57 64 68 70 68 72 69 61 64 56 56 66 66 65 67 66 66 67 66 65 66 61 63 60 54 56
78 77 75 74 71 69 69 69 71 70 68 66 68 69 72 69 68 57 55 68 71 74 73 72 71 56 53 52 53 65 63 61 63 65 66 68 68 68 70 69 66 63 56
73 73 71 72 72 70 68 69 69 69 68 67 67 68 68 73 57 57 55 55 62 71 71 72 68 53 51 52 57 53 53 55 66 65 65 66 66 67 68 67 65 65 66
71 70 71 72 73 73 72 71 69 69 65 65 66 64 74 71 70 52 51 52 54 66 71 62 53 50 50 54 54 53 53 64 64 63 63 65 65 66 64 65 65 65 64
70 70 72 72 71 73 74 74 72 70 70 71 71 66 72 71 69 69 67 65 56 63 58 67 59 58 54 58 60 61 64 63 62 62 62 64 65 65 65 66 63 64 57
71 72 72 74 72 63 59 63 71 69 67 73 70 71 72 70 69 61 61 69 70 60 61 68 67 67 66 65 65 63 63 63 62 62 62 63 63 64 64 65 63 62 55
70 72 72 72 68 67 66 57 44 45 44 43 46 63 64 50 43 42 42 41 42 43 63 66 66 65 64 64 63 63 63 60 61 61 62 62 61 61 61 63 63 61 56
70 71 71 69 68 68 65 67 65 53 43 42 43 45 49 48 43 42 42 42 41 46 65 65 64 63 63 63 63 63 61 61 58 61 61 61 61 60 60 61 61 57 58
71 57 72 72 68 62 64 67 69 68 67 63 46 49 42 42 42 42 43 49 61 58 66 64 63 62 62 63 63 61 61 60 61 60 60 61 61 60 60 60 61 53 55
72 74 75 75 73 68 61 66 68 68 68 66 63 53 48 42 42 42 44 66 66 65 64 63 63 63 63 63 61 59 57 59 57 58 60 60 61 60 60 61 61 54 54
72 60 65 71 66 65 65 67 65 65 67 66 66 66 63 57 62 63 64 64 66 66 65 64 63 63 62 61 59 58 59 59 59 59 59 60 61 61 61 61 61 60 58
72 74 63 73 71 70 70 68 68 69 68 68 68 65 54 66 67 66 66 65 65 65 63 63 63 62 61 60 59 61 61 60 59 59 59 59 60 60 61 62 62 63 60
76 76 75 75 71 68 68 67 68 70 70 69 68 61 44 66 67 66 65 65 66 64 66 63 63 63 62 61 60 61 60 59 58 58 58 59 60 60 61 62 62 62 61
74 75 72 70 69 61 64 66 68 69 68 69 69 67 63 65 61 65 64 65 65 64 63 62 61 61 60 60 60 59 58 58 57 56 56 58 59 59 60 61 61 60 59
74 73 72 71 68 68 68 68 68 58 69 69 68 68 65 62 66 65 65 65 64 63 62 61 62 61 58 58 59 59 59 59 57 58 56 57 59 57 60 60 61 60 60
75 74 72 72 68 67 66 67 66 69 69 69 68 68 69 68 66 64 65 65 63 62 60 60 61 58 56 55 56 56 47 36 45 39 57 58 58 58 59 60 60 61 60
73 72 72 72 71 69 69 69 69 69 69 69 69 69 68 67 67 66 65 64 63 62 61 61 60 57 56 57 56 45 34 33 44 32 53 60 59 59 59 59 59 61 60

GFSGL_sfc_temp_021.txt.gz
Temp
91 90 89 89 89 89 90 90 88 89 88 88 85 85 83 80 80 80 81 81 81 80 81 80 80 81 82 84 84 77 75 79 74 81 79 84 82 81 82 82 79 78 82
93 91 90 90 89 89 88 90 88 86 87 86 85 84 80 78 75 75 79 80 81 80 80 79 79 83 79 79 81 78 77 80 78 72 78 80 79 80 79 80 80 81 77
94 93 91 89 89 88 88 89 88 86 82 84 83 80 80 76 75 78 78 79 80 81 80 78 80 80 79 80 77 78 81 81 74 74 77 81 81 81 78 77 78 79 81
98 95 90 89 89 90 89 88 87 85 83 83 81 81 78 77 78 80 79 79 79 81 78 81 81 81 80 77 76 75 76 76 75 75 77 76 79 78 73 76 76 77 71
97 95 92 90 90 89 88 87 87 83 83 82 81 80 80 78 82 79 79 79 79 78 80 81 81 80 75 72 79 76 76 74 78 78 76 76 77 70 72 77 73 74 73
96 95 93 90 89 88 87 86 84 83 81 80 80 79 77 81 71 69 77 80 80 77 78 76 78 78 76 69 67 66 70 71 71 73 74 72 71 72 74 70 72 71 68
94 94 93 90 88 86 86 84 82 81 80 79 78 78 76 78 65 66 69 80 80 78 78 78 79 83 76 79 70 65 66 65 65 70 69 70 69 71 70 69 70 69 68
91 92 92 90 87 85 82 81 79 79 79 78 76 77 77 78 63 63 66 77 78 78 80 79 77 78 77 75 72 75 76 77 74 74 72 72 72 73 70 69 68 67 70
89 90 90 89 87 84 81 80 79 78 78 77 76 77 76 78 62 61 66 78 78 77 79 79 77 75 69 65 69 72 74 76 75 66 65 64 63 63 65 70 68 69 66
89 89 90 89 87 83 82 80 79 78 78 79 76 78 73 79 62 60 64 80 78 80 77 76 65 71 60 60 66 72 71 74 76 76 73 69 65 68 63 67 70 67 67
91 90 89 88 85 84 79 80 78 74 74 74 75 77 76 78 75 58 58 76 79 80 75 71 69 58 56 56 57 71 69 66 70 72 73 75 77 77 78 74 70 72 69
90 89 86 85 86 84 80 79 73 74 72 72 72 75 77 76 63 57 56 57 65 72 69 76 71 55 54 53 58 58 57 58 71 72 74 74 74 75 76 75 71 71 72
87 82 83 82 81 79 76 72 70 73 74 72 76 72 73 74 72 55 55 55 56 64 65 55 55 53 52 54 56 59 55 69 71 72 72 72 74 74 72 72 72 72 71
81 77 76 74 75 76 74 73 72 71 73 74 73 71 72 72 71 69 69 61 58 60 59 65 65 62 59 60 64 62 68 71 72 69 69 72 74 73 72 73 71 72 71
78 75 73 73 74 72 67 72 75 69 65 78 76 74 74 67 70 62 60 63 66 67 73 75 73 73 72 71 71 69 65 72 71 71 71 70 70 71 70 72 70 70 68
78 78 76 75 76 79 76 71 46 48 45 46 49 62 65 56 48 45 45 47 50 52 72 74 75 75 69 66 64 65 71 70 71 71 69 69 69 68 68 69 70 69 67
83 82 82 80 81 81 81 79 76 61 46 44 45 46 52 49 45 44 43 43 45 50 71 74 75 72 70 69 71 74 72 72 68 69 69 68 68 68 67 68 68 68 67
82 68 84 85 84 83 82 81 82 77 74 71 51 54 44 44 44 44 43 47 66 61 73 75 74 71 72 73 73 72 72 71 70 70 69 69 69 68 67 67 68 67 66
82 84 84 85 84 81 83 83 84 81 77 75 67 59 50 43 43 44 44 70 75 76 77 76 76 75 74 73 71 70 68 68 67 66 67 69 69 69 67 68 68 59 61
81 71 75 85 81 82 82 83 83 77 71 71 74 73 68 61 67 68 70 72 75 76 77 74 74 73 71 70 69 68 67 67 68 68 69 68 68 69 68 68 68 68 68
84 83 70 85 83 83 82 82 83 83 75 71 72 70 60 71 74 73 73 74 74 75 74 74 73 72 71 69 68 68 68 69 69 68 68 68 67 67 68 68 69 70 70
87 85 85 85 81 82 83 83 83 83 81 74 64 61 53 74 76 72 73 76 76 75 76 73 72 72 72 71 69 68 68 68 68 67 66 67 67 68 67 68 68 69 69
87 79 81 82 79 70 81 83 83 81 77 69 67 69 72 75 76 74 70 74 74 74 75 74 72 71 71 70 69 68 66 68 67 66 65 65 66 66 66 67 67 67 67
79 79 76 77 75 76 75 72 77 67 79 70 69 70 75 75 76 73 72 71 72 72 73 74 72 71 71 68 69 69 68 68 65 66 63 64 65 64 66 66 67 67 67
84 81 76 72 71 78 75 79 74 74 74 72 73 71 68 66 69 72 75 69 71 70 72 73 72 71 68 66 67 67 46 42 55 39 62 63 65 64 66 67 66 67 67
80 76 75 74 74 73 72 72 72 74 72 73 70 69 70 69 71 71 71 67 66 74 74 74 72 70 69 67 66 44 35 40 49 35 54 62 65 66 64 64 65 67 67

GFSGL_sfc_temp_024.txt.gz
Temp
86 86 85 85 85 84 86 85 84 84 83 81 80 80 79 79 78 76 75 77 75 75 75 75 75 76 74 73 74 73 72 71 67 70 72 75 74 74 75 75 76 73 74
87 86 85 85 85 84 84 86 85 83 83 82 80 79 79 79 77 75 75 77 75 74 75 74 74 77 73 73 72 72 72 71 68 66 70 71 72 73 74 72 74 79 74
88 87 86 85 84 84 84 84 85 84 82 81 80 79 78 78 76 76 76 76 76 75 75 74 73 74 73 73 73 71 70 71 69 68 68 71 71 73 71 71 70 71 76
91 89 85 84 84 85 84 83 84 84 82 80 80 79 79 78 77 76 76 76 75 76 76 76 75 75 73 72 72 71 70 69 69 68 68 69 70 70 70 67 66 69 69
90 88 86 86 85 84 84 84 84 84 82 80 79 79 79 78 79 75 76 76 75 75 76 76 76 76 75 72 70 70 69 68 68 66 66 66 67 66 65 67 65 67 68
89 88 87 86 85 84 84 84 83 83 82 80 79 78 77 79 71 70 75 76 75 74 73 74 75 74 72 70 68 68 68 68 66 64 64 66 65 66 66 65 64 64 63
89 88 87 86 84 84 84 83 82 82 80 79 78 78 77 77 68 68 70 76 75 75 74 73 74 79 73 75 68 66 66 65 66 67 65 65 65 66 66 64 63 62 62
88 88 88 86 85 84 83 82 81 82 80 77 77 77 76 76 64 64 67 73 72 72 74 74 73 73 74 73 72 71 70 69 65 65 66 67 68 67 67 65 62 62 63
88 88 88 87 84 83 82 81 81 80 78 77 76 75 74 74 62 62 65 70 71 73 74 74 74 72 70 65 68 68 69 69 70 64 66 64 65 64 64 64 62 61 61
88 88 88 87 85 83 82 81 81 79 77 79 76 75 70 73 61 60 63 72 72 73 73 72 66 71 63 60 65 68 66 67 69 69 69 66 63 65 64 64 65 61 61
90 89 87 86 84 84 82 80 79 77 76 75 74 72 71 71 70 58 58 72 73 73 71 70 71 60 57 57 59 66 64 60 66 66 66 67 68 70 69 69 65 64 61
87 86 85 84 85 83 79 77 77 75 73 73 71 71 72 73 64 57 57 60 66 72 71 71 69 56 54 55 57 58 58 59 64 65 66 66 66 66 66 65 64 64 64
84 83 83 82 82 79 77 74 72 73 72 69 69 69 71 73 72 55 55 56 57 67 68 59 54 53 55 54 56 59 58 62 64 64 64 63 64 65 65 64 65 64 64
82 80 79 76 75 74 73 72 70 70 70 71 71 70 71 71 69 67 66 62 58 63 59 57 58 59 59 63 61 58 62 64 64 63 63 63 64 63 62 62 60 60 60
77 77 76 75 74 68 61 63 72 63 63 70 73 72 72 72 71 65 66 67 66 63 62 65 65 65 64 64 65 65 64 64 63 64 63 62 61 62 60 61 60 59 59
75 74 73 73 73 70 67 62 47 48 46 46 51 66 63 55 48 48 47 48 51 57 66 66 65 68 67 65 64 63 62 63 62 65 63 61 60 60 59 59 59 59 57
77 75 74 73 75 75 74 71 64 55 47 45 45 51 51 48 46 45 45 47 51 56 68 68 68 68 66 65 64 63 62 65 64 64 63 62 60 60 59 59 59 58 58
79 67 78 78 77 77 77 76 75 69 67 63 48 51 44 44 44 44 46 53 64 61 67 68 68 67 66 65 64 65 66 64 63 62 61 61 61 60 59 58 59 58 58
80 78 78 78 79 78 79 79 79 76 73 65 61 55 48 44 44 45 46 66 69 71 69 69 71 70 68 67 66 65 63 63 60 59 60 60 61 61 59 60 60 56 57
76 69 75 78 75 80 80 80 81 76 72 70 69 66 63 61 64 64 64 66 69 72 71 69 69 67 66 65 64 63 63 62 61 61 61 61 60 61 61 60 60 60 59
77 77 67 77 77 79 80 80 80 77 75 73 73 69 58 68 69 70 69 69 71 72 69 69 66 67 66 65 64 64 63 63 63 63 62 60 60 60 60 60 62 62 62
80 81 80 82 78 78 79 81 80 79 77 71 74 65 51 69 74 71 69 67 67 70 72 68 68 67 68 66 64 64 63 63 63 61 60 60 60 61 60 60 61 61 61
77 75 68 72 73 67 71 81 70 69 73 72 73 67 67 70 73 69 68 68 66 66 68 69 69 68 68 66 65 63 62 62 61 61 60 59 59 60 60 60 60 60 60
79 73 72 74 72 73 76 76 76 68 72 75 72 72 71 71 68 70 66 69 65 65 66 65 67 70 67 65 65 65 63 61 60 59 57 57 58 59 59 60 60 60 60
78 73 68 69 73 77 73 74 77 76 76 73 67 67 71 74 70 67 66 66 66 66 66 66 67 69 67 66 64 56 41 42 51 42 56 58 57 58 60 60 60 60 61
81 79 78 78 76 75 76 76 70 70 71 72 73 68 72 67 69 70 65 67 69 68 67 66 69 69 68 66 64 44 35 40 47 39 50 55 57 59 59 59 60 60 60

GFSGL_sfc_temp_027.txt.gz
Temp
82 82 82 81 81 80 79 77 78 78 76 77 77 76 75 73 73 71 69 69 69 69 69 68 68 69 68 69 68 69 66 65 62 64 66 68 69 70 73 71 71 69 69
83 82 81 81 81 80 81 79 79 79 75 77 77 75 75 75 73 72 70 72 69 68 68 67 68 71 67 67 67 67 66 65 63 61 63 65 66 67 67 68 70 73 69
83 82 81 81 80 80 80 81 80 80 77 77 77 76 75 74 73 72 72 69 69 69 68 67 69 70 66 66 67 68 67 66 64 63 62 64 65 65 67 66 65 66 70
83 82 81 81 81 81 81 81 78 80 79 76 77 76 75 75 73 73 71 68 68 69 69 69 69 71 68 66 66 65 65 65 64 62 61 62 63 65 63 62 62 62 64
83 82 82 82 82 81 81 80 81 78 79 77 75 75 74 74 74 72 72 69 68 68 69 70 71 71 72 69 66 65 65 63 62 61 60 61 61 60 60 60 59 60 61
84 83 83 82 81 80 80 80 79 80 78 76 74 73 73 76 70 69 72 70 68 68 67 68 72 73 71 70 69 68 67 64 62 60 60 60 60 60 60 59 58 56 55
85 84 83 82 81 80 80 79 78 78 77 76 74 73 72 74 67 67 69 69 68 67 67 71 69 75 70 67 65 66 66 65 66 62 60 60 60 61 60 59 58 57 56
84 83 83 82 81 80 80 79 79 79 79 76 74 74 74 73 65 65 68 69 67 68 70 70 69 68 66 66 65 65 65 65 63 63 61 63 62 63 62 60 59 57 56
83 83 83 82 81 80 79 79 80 78 74 74 75 75 74 69 62 62 65 67 65 68 69 69 68 66 66 63 65 63 63 64 65 63 63 63 63 64 62 58 57 53 51
85 84 84 83 82 80 80 79 79 77 76 75 73 73 68 70 61 61 64 68 66 67 68 67 65 67 62 60 64 63 61 62 63 62 61 63 62 62 63 60 61 53 52
86 83 83 84 81 81 80 79 77 75 73 74 72 71 71 71 65 58 59 69 69 68 67 65 65 61 57 57 59 63 62 58 60 61 61 61 61 60 64 66 60 56 53
81 82 80 80 81 80 78 75 73 72 72 70 70 69 71 70 63 57 57 60 65 66 65 65 64 56 55 56 57 57 56 58 59 58 55 55 56 59 63 62 59 58 57
80 78 78 77 77 75 73 72 71 70 70 68 68 68 68 68 66 58 56 57 58 62 63 60 55 51 53 54 56 56 58 56 56 54 53 54 56 60 57 58 58 57 56
77 74 73 72 71 71 71 71 69 68 67 68 67 66 66 66 62 59 58 57 57 60 57 56 55 55 55 56 54 54 53 54 55 54 53 55 55 55 55 54 53 53 51
72 71 70 69 64 59 54 58 66 58 65 68 67 67 66 64 62 59 58 60 60 58 56 55 54 54 53 54 54 54 54 57 58 57 54 53 53 53 52 53 51 51 49
69 69 67 65 63 61 60 57 48 47 46 48 54 62 55 53 51 49 50 52 52 51 56 56 55 55 55 55 54 56 60 61 58 58 55 53 52 51 51 51 50 49 48
68 68 68 65 67 65 63 61 57 55 47 44 45 49 51 49 47 46 45 47 50 53 56 57 57 56 57 56 57 60 59 59 60 58 52 51 51 51 51 50 50 49 49
70 62 71 70 68 68 66 63 60 61 59 56 46 47 44 44 45 45 46 52 56 55 56 56 56 56 58 59 56 56 54 57 53 51 51 51 50 50 50 50 49 47 48
71 71 71 72 72 69 70 66 63 62 59 55 50 48 44 44 44 46 47 55 56 56 56 56 56 56 55 54 53 53 52 52 51 51 50 49 50 49 49 50 49 51 50
66 66 68 69 70 72 70 69 67 65 59 57 55 54 50 50 52 53 54 55 56 57 57 56 55 55 54 53 53 52 52 51 51 49 49 49 48 49 49 49 49 49 49
70 68 65 67 66 68 68 67 70 65 62 61 60 57 52 58 56 55 55 55 57 58 56 56 55 55 54 54 53 53 52 51 50 49 48 48 49 49 49 49 50 50 49
67 65 65 63 65 68 69 68 70 69 65 63 61 57 49 56 58 58 57 58 59 59 59 57 56 55 55 53 52 51 50 50 49 48 48 49 49 49 49 49 49 49 49
66 66 66 65 63 61 61 63 64 64 62 61 61 57 56 58 58 59 60 61 59 58 61 61 59 56 54 53 53 51 50 49 48 48 47 47 47 47 47 48 48 48 48
66 65 64 62 61 62 64 63 64 61 63 63 61 60 60 59 60 60 62 61 60 62 61 61 61 57 54 52 51 50 49 48 47 47 47 46 46 46 47 48 48 49 49
66 65 64 62 62 63 64 64 62 61 63 63 61 61 63 61 63 61 64 64 64 63 61 61 59 58 56 54 49 47 41 42 45 44 45 46 46 47 47 47 48 48 49
65 68 66 65 65 65 65 64 62 62 62 63 61 62 60 60 61 63 58 57 58 57 57 56 57 57 56 53 51 42 37 39 42 40 43 43 44 45 46 48 49 49 49

GFSGL_sfc_temp_030.txt.gz
Temp
81 81 80 79 79 80 76 77 77 77 76 74 75 74 74 72 70 69 67 67 66 66 67 66 66 66 65 64 65 64 63 62 61 62 63 65 68 67 70 68 69 67 67
81 81 80 80 79 78 79 78 77 77 77 77 75 74 74 73 71 70 69 70 67 66 66 65 66 69 65 65 65 64 63 63 61 60 61 63 64 66 66 66 69 71 67
81 81 80 79 79 78 79 80 77 78 75 75 75 74 74 73 72 72 71 68 68 67 67 66 66 65 67 64 64 66 64 64 62 61 61 63 63 66 65 65 65 65 68
82 81 79 79 79 79 79 79 78 78 75 74 74 74 74 74 73 72 71 69 67 67 67 68 67 66 68 66 66 66 63 62 62 61 60 60 61 63 61 60 61 60 62
81 81 80 80 80 80 79 78 79 78 78 74 74 73 73 73 74 72 71 70 68 67 66 67 67 70 71 68 66 67 64 63 61 60 59 59 59 59 59 60 59 59 59
81 80 81 80 79 79 78 78 77 76 77 74 72 73 71 74 69 68 71 70 69 69 66 66 67 71 70 68 67 67 65 63 61 60 59 58 59 59 59 58 57 55 54
82 81 80 80 78 78 78 77 76 76 74 73 72 72 71 73 66 66 69 71 69 69 68 66 67 73 69 68 65 65 64 64 64 63 60 60 59 59 59 58 57 56 55
81 81 81 79 78 78 77 77 76 77 76 73 72 72 72 73 64 64 67 70 69 68 67 67 67 67 67 66 66 64 65 64 63 63 62 65 61 61 60 60 59 57 55
81 81 80 80 78 77 77 76 77 76 76 74 73 73 72 71 63 62 65 67 68 68 69 68 68 66 64 62 65 63 62 63 64 62 62 62 61 62 62 58 57 54 53
82 82 81 81 79 78 78 77 78 78 76 75 73 73 71 71 60 59 65 69 68 68 65 66 64 66 61 59 63 62 61 63 62 61 60 60 61 61 62 59 58 54 52
85 84 82 81 80 80 79 79 78 77 74 74 72 72 70 68 62 58 59 70 70 66 65 65 66 60 56 55 57 62 60 59 60 57 56 57 57 58 58 60 59 58 54
84 83 81 80 81 80 79 78 76 74 73 71 69 68 68 67 61 56 58 61 63 63 64 65 64 56 53 53 57 57 57 58 56 54 53 53 54 55 57 57 58 61 60
81 80 79 78 79 79 77 75 73 72 71 69 68 67 67 67 63 57 56 56 58 63 66 61 54 52 52 55 56 56 55 55 53 52 51 52 53 54 54 55 55 54 53
80 76 76 76 75 76 75 74 72 70 69 68 67 66 66 67 65 61 58 57 57 60 58 57 56 55 55 57 54 54 53 52 52 52 52 52 52 52 52 51 51 50 48
75 75 73 71 68 60 58 65 68 62 67 67 67 67 66 64 62 58 57 59 60 58 57 57 55 54 53 53 53 53 52 51 52 52 52 52 51 51 51 50 48 47 46
69 68 66 64 62 61 59 56 50 49 52 52 56 62 58 57 50 49 47 48 48 50 57 54 53 53 53 53 52 52 52 54 52 53 53 50 50 49 49 48 47 45 45
67 65 64 63 63 62 61 60 57 54 50 45 46 48 51 51 47 45 45 46 46 52 55 55 54 54 54 54 53 52 53 54 54 52 50 49 49 49 48 47 47 46 47
65 59 64 64 63 63 63 59 59 61 60 54 46 46 45 45 45 44 45 50 52 53 54 54 53 54 53 53 53 52 50 51 50 49 49 52 49 48 47 47 46 45 45
67 65 65 64 63 61 61 62 61 60 58 52 49 48 45 43 44 45 48 55 54 54 52 53 53 52 52 51 50 50 50 50 50 48 47 47 46 46 46 46 46 48 47
65 63 66 67 65 64 63 62 60 58 56 56 56 53 48 51 52 52 54 55 55 54 54 53 53 52 52 51 50 49 49 49 48 46 46 47 46 45 46 46 46 45 45
62 63 63 64 65 66 65 64 62 59 57 54 54 53 49 57 54 54 54 52 54 54 54 54 52 52 51 50 49 49 49 48 47 46 46 45 45 46 45 45 45 46 45
64 63 63 62 62 63 65 67 64 63 60 59 57 53 46 55 55 55 54 55 55 55 55 56 53 53 52 51 50 49 48 48 46 45 45 45 45 45 45 45 45 45 45
62 62 61 60 60 60 61 63 64 62 59 58 57 55 53 54 54 55 56 56 56 55 55 54 55 52 50 51 50 49 47 47 46 46 46 45 44 44 44 44 44 44 44
64 62 62 59 59 60 60 60 60 58 61 59 57 56 56 58 56 57 57 56 56 60 58 60 57 54 51 50 49 48 47 46 45 46 47 45 44 43 44 43 44 45 45
63 62 62 60 60 61 61 62 61 61 61 60 59 57 57 58 57 58 57 58 58 59 61 59 55 54 53 51 49 48 43 40 44 42 44 45 45 44 44 43 43 45 46
63 63 60 58 59 59 60 60 59 59 61 62 58 57 58 59 58 57 56 56 56 58 57 53 54 55 53 50 49 43 37 39 42 40 42 42 42 43 43 44 44 45 45

GFSGL_sfc_temp_033.txt.gz
Temp
79 79 79 78 78 77 75 74 74 74 73 72 73 72 71 70 69 68 66 65 65 65 65 64 64 64 63 63 63 62 61 61 60 62 60 63 65 66 67 67 68 66 66
81 80 79 79 78 77 77 75 76 75 74 74 73 72 72 71 70 69 68 69 66 64 65 64 65 67 63 64 65 64 62 61 60 60 60 61 63 64 65 65 67 70 66
81 80 79 79 77 77 78 77 75 76 75 74 74 73 72 71 70 70 70 68 67 67 65 65 65 64 63 64 65 65 64 62 61 60 60 60 61 63 63 63 64 64 67
81 80 79 79 78 77 79 78 77 77 76 75 74 74 73 73 72 71 70 69 68 68 67 66 65 65 64 65 64 63 63 62 61 60 59 59 60 61 60 60 60 60 61
80 79 79 79 80 78 78 78 78 76 77 75 73 73 73 73 73 71 71 70 69 68 67 67 67 68 69 66 64 64 64 61 62 60 58 58 59 58 59 59 58 58 58
80 79 80 79 79 78 77 77 76 76 76 73 72 72 71 73 69 68 72 71 69 69 66 65 66 69 68 67 67 67 65 63 62 59 58 58 60 60 58 58 57 56 55
80 80 79 79 78 78 78 76 75 75 76 73 73 72 71 73 65 66 69 72 69 67 67 67 67 70 67 67 65 66 65 65 65 61 60 60 61 61 59 59 56 56 55
79 79 79 78 78 78 77 76 76 76 74 75 71 72 72 72 64 63 67 70 68 68 69 68 68 68 66 66 65 64 64 64 62 63 62 63 61 63 60 59 58 56 55
79 79 79 79 78 77 76 76 76 77 75 74 73 71 72 71 61 61 64 69 68 68 69 69 68 67 63 63 64 63 64 63 62 61 61 61 61 61 61 58 56 54 52
79 80 80 79 78 77 77 77 77 78 79 77 74 73 70 71 59 60 64 70 67 67 68 67 64 65 59 59 63 63 62 60 61 60 60 60 59 59 61 58 56 54 51
82 82 81 81 79 79 78 78 77 77 78 76 74 73 71 71 62 57 60 68 68 67 67 63 63 58 56 55 58 62 61 59 60 58 56 55 55 55 56 55 55 54 51
82 81 80 80 79 79 78 77 76 75 75 74 73 71 71 67 59 56 58 62 63 66 62 62 63 57 52 52 54 55 56 58 56 54 53 52 52 54 55 54 54 54 55
79 79 79 79 79 80 76 75 74 74 74 73 71 69 67 67 62 56 56 57 59 62 63 62 56 52 50 53 55 55 55 55 54 52 51 51 52 52 52 53 54 52 51
76 77 75 74 74 77 75 75 75 74 73 70 69 68 67 66 66 62 59 58 57 60 57 57 57 56 55 56 55 54 56 53 52 51 51 51 51 50 50 50 50 48 47
71 72 70 71 70 65 57 67 74 67 70 69 68 67 66 65 64 58 58 60 61 58 57 58 58 55 55 53 53 52 51 51 51 51 51 51 50 49 49 48 47 45 45
69 67 64 63 62 61 61 58 51 54 54 55 56 62 62 56 50 49 46 48 49 51 58 58 57 57 54 53 52 51 51 53 50 51 51 51 49 48 48 47 45 44 43
64 63 63 63 64 64 63 63 62 58 53 49 47 49 54 53 46 44 45 45 47 52 59 57 54 53 53 53 52 52 52 52 52 52 51 49 48 47 47 46 45 44 44
64 58 65 65 66 64 63 62 63 62 63 58 48 48 46 45 45 44 44 48 55 55 54 54 54 54 53 53 53 52 51 49 48 48 48 47 47 47 46 45 44 42 42
65 64 65 65 64 63 63 63 63 63 61 55 52 48 45 43 43 44 47 59 57 54 52 52 52 52 52 51 50 49 49 48 48 47 46 46 46 45 44 44 43 47 45
64 61 62 62 60 61 61 61 60 58 57 58 59 54 51 53 55 55 54 55 56 54 52 51 51 51 50 50 49 48 48 48 47 46 45 45 44 44 44 44 43 43 43
63 63 61 62 62 63 62 61 60 58 58 58 57 54 51 60 57 56 56 55 53 53 52 52 52 52 51 49 49 48 48 47 45 45 44 43 44 44 43 43 43 43 42
60 61 62 62 61 60 60 61 60 59 58 55 51 48 46 55 56 55 53 53 53 53 56 54 53 52 53 52 49 48 47 47 45 44 43 43 43 43 43 43 43 43 43
61 60 59 59 59 58 59 59 57 55 54 54 54 52 52 52 53 54 53 53 53 53 52 52 52 50 50 50 49 49 47 47 46 44 44 43 43 43 42 42 43 42 42
61 60 60 58 58 58 59 59 58 54 57 55 55 54 54 53 54 54 54 54 53 53 53 52 53 57 52 48 48 47 47 46 45 45 45 44 43 42 42 42 42 43 43
61 61 60 60 60 60 59 59 59 59 59 58 57 55 53 53 53 54 54 54 54 53 54 54 54 53 51 51 49 48 44 40 44 42 43 43 43 43 42 42 42 43 43
62 62 60 60 60 60 60 60 60 60 60 59 59 57 57 54 54 54 54 54 53 54 54 54 52 53 53 51 50 45 36 38 42 39 42 42 41 40 41 43 43 43 43

GFSGL_sfc_temp_036.txt.gz
Temp
77 77 77 77 77 77 76 75 75 74 74 74 74 74 73 71 71 70 69 69 68 68 68 67 67 68 69 69 69 68 68 68 68 69 68 70 71 72 73 73 74 73 74
78 77 77 77 77 76 75 76 75 74 74 74 74 73 73 72 71 71 70 71 69 68 68 67 68 69 67 68 69 67 68 67 68 66 67 69 70 71 72 71 73 75 74
79 78 77 77 76 75 76 77 75 74 73 74 73 73 73 72 71 72 71 71 70 70 69 68 69 68 67 68 68 69 68 67 66 67 68 68 69 70 69 69 70 71 73
80 78 77 77 76 77 77 77 75 75 74 73 73 74 73 73 72 72 72 71 71 71 70 70 69 69 68 68 67 67 67 66 66 65 65 66 68 69 67 66 68 68 70
78 78 77 77 77 77 76 76 76 76 75 74 74 74 74 74 75 72 72 71 71 71 70 70 70 70 69 68 69 68 67 66 66 64 64 61 66 66 65 64 66 64 67
78 77 77 77 77 76 75 76 75 75 75 74 73 74 73 75 70 68 72 72 71 71 69 70 71 69 69 67 67 67 68 67 66 65 65 63 66 65 63 66 64 65 65
77 77 77 77 76 76 76 75 75 74 75 75 74 74 73 74 66 66 68 73 72 70 70 69 69 71 68 69 66 66 66 66 67 68 67 64 66 64 66 65 64 63 64
77 77 77 76 76 76 76 75 75 76 75 75 73 74 74 74 64 64 67 73 71 70 70 69 70 69 68 68 69 68 68 68 67 68 66 69 68 67 67 66 65 63 63
76 76 77 77 76 76 75 75 76 76 75 75 76 73 73 73 62 62 65 71 69 69 69 70 69 69 65 63 68 68 68 67 63 62 62 62 61 61 64 64 62 61 62
77 77 78 77 76 76 76 76 77 77 76 76 75 74 71 74 61 60 64 73 69 68 69 69 64 68 59 59 68 67 66 67 66 61 65 62 62 63 61 66 66 63 61
79 79 78 78 77 77 77 77 77 77 76 75 75 75 73 72 69 58 59 71 69 68 68 67 68 59 55 55 59 67 66 64 62 64 64 64 64 65 65 64 64 65 61
77 78 77 77 78 79 77 77 77 75 75 75 74 73 72 73 63 57 57 64 65 69 68 66 66 55 53 52 56 57 56 60 64 63 63 63 63 64 64 64 62 64 65
75 74 75 76 77 78 76 75 75 75 75 74 73 72 72 72 68 56 57 59 61 67 66 63 56 51 50 52 54 55 56 64 63 62 62 62 63 64 62 62 61 60 60
72 72 72 73 74 76 76 76 75 75 74 73 72 72 71 67 65 63 64 64 60 61 58 59 57 57 57 58 57 57 61 63 63 62 61 62 61 61 62 62 62 60 60
70 70 69 69 62 61 60 58 63 59 64 73 73 71 66 64 63 61 62 63 63 58 58 60 60 60 59 58 58 57 59 60 60 59 60 60 61 60 60 59 59 58 58
65 64 63 63 64 64 64 62 52 53 53 51 53 58 64 58 53 54 53 53 51 52 59 60 59 59 59 59 58 57 58 58 59 60 60 61 61 60 60 58 57 57 57
64 64 64 64 63 62 62 61 60 59 51 52 53 55 53 53 51 48 46 46 48 55 62 61 61 59 60 60 59 59 59 60 59 60 60 60 60 59 57 58 57 56 57
66 58 65 64 64 63 63 62 62 61 61 61 48 46 45 47 45 44 46 50 56 58 63 61 60 59 60 60 59 59 60 60 60 60 59 59 58 58 57 57 56 56 56
64 65 66 64 64 62 64 63 62 62 61 61 53 49 45 43 46 48 49 60 60 60 60 61 62 61 61 61 60 60 59 59 58 57 57 57 57 58 57 57 57 50 52
63 60 61 63 62 63 63 63 62 62 59 57 57 55 52 53 56 58 59 61 61 60 60 60 60 60 60 59 58 57 56 56 56 57 57 57 57 57 58 57 57 57 57
64 63 60 62 62 63 62 61 60 60 60 60 59 55 51 61 59 58 58 59 60 60 58 59 57 58 57 57 57 58 59 59 58 58 57 56 56 56 57 57 57 57 57
64 64 63 62 62 61 60 60 60 60 60 58 54 53 48 61 60 59 59 60 60 61 60 59 59 59 60 60 59 60 59 59 58 57 57 56 56 57 57 57 57 57 57
65 63 62 62 62 58 60 60 60 60 59 59 58 57 59 60 60 59 59 60 60 59 60 61 60 59 60 61 61 60 59 59 59 57 56 55 55 56 56 56 57 57 57
65 63 62 60 61 61 61 60 60 54 59 58 58 59 59 60 61 60 61 61 60 60 60 61 62 63 61 60 60 60 60 60 58 57 56 56 56 51 55 55 56 56 57
63 63 63 62 63 61 61 59 58 58 57 56 55 55 56 56 57 60 61 61 61 61 61 61 62 62 58 59 59 59 52 41 53 49 56 56 55 53 55 56 56 56 56
63 62 60 60 60 59 60 60 59 59 59 58 57 56 55 55 55 57 61 61 61 62 62 62 62 62 61 61 60 51 37 37 46 41 55 55 54 54 54 55 55 57 56

GFSGL_sfc_temp_042.txt.gz
Temp
89 89 88 89 89 88 89 89 89 89 90 89 90 89 89 89 88 86 87 88 84 83 85 84 82 85 89 90 89 89 88 88 84 89 90 88 84 84 88 87 88 88 89
91 89 88 89 88 89 88 90 90 89 89 89 89 88 89 89 88 86 86 88 85 83 84 83 82 86 81 84 88 84 86 87 86 80 86 86 82 84 84 84 87 91 90
92 91 89 88 88 88 88 88 90 88 89 89 89 88 88 89 88 87 87 87 86 85 85 83 83 83 81 86 84 86 86 84 84 84 85 86 87 87 83 82 83 84 88
96 92 89 88 88 89 89 88 89 89 88 88 88 88 89 89 89 89 88 87 87 87 86 86 85 84 82 81 82 81 84 84 83 84 85 86 85 85 84 84 83 86 86
95 93 90 88 89 88 88 88 89 88 89 88 88 89 89 90 92 88 89 88 86 86 87 86 86 84 78 80 85 82 82 81 85 84 83 85 85 84 80 85 84 84 83
94 91 90 89 88 87 87 87 87 87 87 87 88 88 88 92 80 74 84 89 88 86 85 85 86 77 76 71 71 72 80 80 79 84 84 82 81 82 84 82 82 80 76
91 91 89 89 87 87 87 86 86 86 87 86 87 88 87 88 71 70 72 89 88 87 86 86 86 89 79 83 70 69 70 70 72 81 79 81 81 81 81 77 78 75 78
88 89 89 88 87 87 86 86 85 87 86 86 86 87 87 89 68 67 70 85 88 88 87 86 85 86 84 82 81 78 79 79 76 82 81 82 82 82 80 79 77 76 79
89 88 89 89 87 86 85 85 86 86 86 86 87 86 86 87 65 63 68 86 86 86 87 87 85 84 76 68 79 78 77 77 70 67 66 68 67 67 73 80 78 74 75
89 89 90 89 88 86 86 85 86 86 86 88 86 87 80 86 67 60 67 87 85 87 86 85 70 81 67 63 77 75 72 74 75 74 74 68 67 70 64 76 81 76 75
93 92 90 90 88 87 87 86 86 86 87 84 82 84 85 84 82 59 59 79 84 88 88 89 88 65 58 58 65 75 72 75 70 76 70 72 76 78 76 76 78 79 78
92 91 90 88 89 90 86 86 85 84 83 82 79 79 82 82 69 61 58 61 75 86 87 86 82 59 55 56 61 62 59 64 70 68 68 70 74 76 78 78 77 78 81
89 88 88 88 88 89 85 84 85 84 86 83 84 79 81 81 78 61 58 57 61 74 87 73 61 54 53 56 58 59 59 69 69 67 68 72 74 79 79 75 75 75 74
86 86 87 86 85 87 89 89 88 88 86 86 85 86 90 91 88 85 67 62 60 65 62 63 59 60 59 61 60 60 66 68 69 71 74 72 76 79 75 76 75 75 76
86 87 87 89 85 87 88 84 89 90 82 90 90 92 91 90 89 68 66 67 67 63 63 64 64 65 64 62 63 64 66 66 66 68 68 72 77 73 75 77 77 77 74
86 88 90 90 89 87 83 74 50 50 46 46 52 66 80 55 51 51 50 51 53 53 64 64 67 66 65 65 64 63 65 65 68 70 74 74 72 74 75 76 77 76 74
83 80 83 82 87 86 83 74 71 63 49 45 45 45 47 49 47 47 47 48 50 55 63 64 67 69 68 64 64 65 65 66 71 73 74 73 75 75 73 75 75 75 73
78 62 83 84 85 85 84 80 80 78 77 76 51 49 44 44 44 44 46 52 59 60 67 67 67 66 66 65 65 66 65 68 71 73 74 75 75 75 74 75 75 73 73
79 75 77 76 77 77 78 78 80 77 78 77 73 59 50 42 42 44 49 71 63 65 69 67 69 65 66 66 66 65 68 71 74 74 75 76 77 77 76 77 75 60 64
76 64 68 75 74 74 76 76 76 75 75 70 75 76 63 63 66 61 64 64 63 64 65 67 68 66 65 64 65 67 71 72 73 75 76 77 78 79 78 76 76 73 71
81 80 66 83 84 84 83 78 78 77 72 69 67 67 53 67 68 63 63 67 66 66 67 65 63 63 64 67 72 75 77 76 75 78 79 77 77 77 77 77 76 75 75
81 83 84 83 82 81 79 77 71 69 68 67 70 62 47 70 67 65 67 70 68 66 66 65 65 68 71 74 76 77 76 77 78 78 77 77 77 77 76 76 75 75 74
86 84 78 77 77 67 73 74 75 76 73 70 66 64 65 65 66 66 67 68 68 69 71 74 76 77 79 80 80 78 78 79 79 79 77 76 76 75 75 74 74 73 73
85 84 83 81 81 81 80 78 74 64 68 65 67 70 75 78 80 79 80 80 80 79 79 78 79 79 78 79 80 81 81 81 80 78 77 76 75 70 75 74 74 73 73
79 79 79 79 75 72 75 77 79 79 77 74 72 75 78 81 80 80 79 79 80 79 79 80 80 78 79 79 79 80 55 53 71 63 76 75 74 72 73 74 73 73 71
72 70 65 65 66 68 70 65 66 70 72 71 70 69 70 72 75 78 77 80 80 81 80 81 81 79 79 79 78 53 39 43 62 47 73 74 73 73 73 72 71 72 71

GFSGL_sfc_temp_045.txt.gz
Temp
90 90 89 89 90 89 90 91 90 91 92 91 92 91 90 89 89 88 88 90 86 85 87 87 84 85 90 92 91 91 89 89 84 89 91 88 86 85 86 87 88 87 86
92 90 90 90 90 90 89 91 91 90 90 91 90 90 90 90 89 88 87 89 88 85 85 85 85 87 83 84 90 85 87 88 86 82 88 86 83 84 85 85 87 92 90
94 93 91 90 90 89 89 90 91 89 90 91 90 89 89 89 89 89 88 88 89 88 86 85 85 84 83 85 84 87 88 87 86 84 85 88 88 86 84 84 84 84 88
98 95 91 89 89 91 90 90 90 90 89 89 89 89 89 90 90 90 89 88 88 89 88 87 86 85 83 82 84 82 84 85 83 84 84 86 87 86 86 83 81 84 84
98 96 92 91 90 90 89 90 90 90 90 89 89 89 90 91 93 89 89 88 87 87 89 88 88 85 79 81 84 82 81 83 86 84 83 85 86 85 81 84 83 83 75
97 95 93 91 90 89 89 89 89 89 89 89 88 89 89 93 81 75 84 89 88 87 86 87 88 79 78 73 73 73 80 80 79 85 85 82 81 84 86 85 84 82 76
95 95 93 91 89 88 89 88 87 87 89 88 88 89 88 89 74 72 73 90 89 88 87 87 88 91 80 84 71 71 70 70 75 79 77 80 80 83 83 80 79 79 78
93 92 93 91 89 89 88 87 87 88 87 87 88 88 88 90 71 67 71 87 88 88 87 86 86 86 84 82 81 77 77 77 74 78 78 79 79 83 82 80 78 78 79
92 91 92 92 89 88 87 87 88 88 88 87 88 87 86 87 68 65 69 87 87 85 86 87 86 84 78 70 81 78 75 76 70 66 66 66 68 71 74 78 78 76 74
92 92 92 92 90 88 88 87 88 88 88 90 89 88 82 87 67 62 70 89 85 87 85 83 71 82 70 64 80 80 77 75 74 71 69 67 66 68 66 74 78 74 72
97 95 92 92 89 89 88 88 87 87 88 86 88 88 88 85 83 60 61 81 84 85 87 88 89 66 65 60 66 81 77 74 68 71 69 69 69 72 71 72 75 76 71
96 94 92 90 92 93 88 88 87 86 85 85 85 88 91 88 71 61 64 67 77 87 86 91 88 62 62 58 61 68 61 65 70 69 68 68 68 70 73 74 74 77 78
93 91 91 90 90 91 87 86 87 86 87 85 88 87 89 92 88 64 61 60 59 76 88 76 61 55 55 57 60 59 61 69 69 67 67 67 68 69 71 73 75 75 76
89 89 90 89 88 89 91 90 89 90 88 89 89 89 90 90 91 91 87 74 60 68 69 78 70 63 60 64 61 62 68 68 68 68 68 68 70 69 67 71 71 71 72
89 90 89 91 87 89 88 83 91 85 77 91 92 92 91 90 90 70 80 90 83 76 75 69 66 65 63 64 65 67 68 70 69 70 69 69 66 65 65 70 71 73 70
87 90 92 94 90 92 85 78 49 50 46 46 46 62 82 59 53 54 53 53 52 54 69 66 65 64 63 63 65 65 67 68 69 67 66 65 64 64 64 70 73 73 74
89 91 94 90 92 93 91 87 83 60 47 46 45 45 44 43 46 45 43 47 47 54 66 64 64 64 64 64 64 65 65 67 68 66 66 66 64 64 67 71 74 75 74
85 67 90 92 92 91 87 84 86 84 84 81 52 52 44 44 43 44 46 54 62 63 65 63 64 64 64 63 64 64 66 66 66 68 67 64 64 71 73 74 75 74 74
86 86 86 88 90 85 87 86 87 84 83 82 76 61 52 44 46 48 51 66 64 65 66 65 65 64 64 64 64 65 66 66 65 64 64 65 74 77 75 76 77 63 67
80 67 76 84 84 85 86 86 84 83 81 82 83 82 72 67 71 66 69 72 70 71 75 75 72 74 70 66 65 64 65 63 64 64 69 77 78 79 78 77 77 74 73
84 82 74 85 84 84 83 80 77 77 79 79 78 72 52 77 77 75 72 72 74 73 72 73 71 70 69 68 66 63 63 63 66 69 72 75 78 78 79 79 78 78 76
89 89 88 88 86 84 83 80 80 79 78 73 74 69 49 73 75 75 71 74 76 74 71 72 71 71 68 66 64 65 70 72 74 76 78 79 79 79 79 79 78 77 77
84 85 84 81 80 73 79 83 82 82 80 78 76 73 73 76 77 75 70 72 73 74 73 72 67 66 68 71 72 71 73 76 77 79 79 79 78 77 78 77 77 76 75
77 76 77 78 76 79 80 80 77 68 77 77 77 78 78 79 79 77 79 78 78 78 76 75 75 74 72 73 78 80 80 81 80 80 80 78 77 71 77 76 76 75 75
75 73 73 77 75 77 77 73 71 78 77 77 76 72 75 76 74 77 77 80 82 82 82 82 82 82 80 80 80 81 54 50 74 65 79 78 76 75 75 76 76 76 74
72 70 71 71 71 71 70 67 67 66 69 68 69 71 73 73 73 71 78 81 82 82 82 83 83 81 81 81 80 52 39 48 64 49 75 77 75 75 75 74 75 75 73

GFSGL_sfc_temp_048.txt.gz
Temp
85 85 84 85 84 84 85 85 85 85 85 87 86 85 84 84 84 83 82 83 82 80 81 80 78 78 79 80 80 79 78 77 74 76 78 78 78 78 77 80 80 77 74
87 85 85 85 85 85 84 86 86 85 85 86 86 85 84 84 84 83 83 84 83 80 80 80 80 81 77 78 79 77 78 78 76 73 76 76 76 77 77 77 79 85 81
89 88 86 85 85 85 85 85 86 85 85 86 86 85 84 84 84 84 83 83 83 82 81 80 80 79 77 78 77 77 77 78 78 75 74 77 76 77 75 76 76 76 80
94 90 86 85 85 86 86 85 85 86 84 85 85 85 85 85 85 85 84 83 83 84 83 82 81 80 78 77 77 75 76 76 75 74 74 73 75 75 75 74 72 75 75
92 90 87 86 87 86 85 86 86 85 86 85 85 85 85 86 88 84 84 84 83 82 83 83 83 81 78 77 79 76 74 75 75 75 73 73 73 73 74 74 72 74 74
91 90 88 87 86 86 85 85 85 85 85 85 84 85 85 88 79 74 81 85 84 82 82 83 83 78 76 72 73 74 77 74 74 75 75 74 72 74 75 74 72 70 68
91 90 89 87 86 85 85 85 84 84 85 84 84 85 84 85 73 71 73 85 84 83 82 82 83 87 77 79 72 72 72 71 74 76 73 73 73 76 74 73 73 72 70
89 89 89 88 86 85 85 84 84 85 84 84 84 84 84 85 72 69 71 83 83 83 83 83 82 82 82 80 78 75 76 76 73 77 77 76 76 77 75 73 72 71 72
89 89 89 89 86 85 84 84 84 84 84 84 85 84 83 84 69 67 69 82 83 82 83 83 83 82 77 69 78 76 75 76 71 69 70 68 70 70 72 71 69 67 67
89 89 90 89 87 86 85 84 85 85 85 87 85 85 80 84 70 64 68 85 82 83 83 82 71 80 70 65 77 78 75 75 76 71 69 65 66 68 68 71 70 66 66
92 91 89 88 87 86 85 85 85 84 85 83 84 85 85 83 83 62 61 83 84 83 83 83 85 66 62 61 65 79 78 78 73 72 70 68 68 68 67 68 69 68 65
91 90 88 87 88 90 85 85 84 83 82 82 82 84 86 85 70 62 59 64 75 82 82 85 84 63 60 60 61 70 64 67 73 69 68 67 66 66 67 68 68 68 68
90 88 87 87 87 87 85 83 84 83 83 82 83 83 84 87 86 63 58 59 62 72 77 72 60 57 53 57 59 62 60 70 69 67 66 66 66 67 69 69 68 67 66
88 87 86 85 84 86 89 87 85 85 83 84 83 83 85 85 86 86 72 67 63 67 69 72 72 63 61 64 64 61 69 71 69 67 65 65 67 68 67 68 65 64 62
87 87 87 88 84 86 80 78 85 74 72 85 85 87 85 85 78 65 68 79 82 74 74 78 77 73 70 69 66 66 69 70 67 66 64 64 66 67 64 64 63 62 60
85 87 88 89 87 88 76 71 49 48 46 46 47 68 65 53 48 48 47 48 51 55 71 71 67 67 67 67 65 65 67 67 67 66 66 66 65 63 62 62 62 62 59
85 85 88 84 89 87 81 78 69 56 46 44 44 46 47 46 45 45 46 46 49 59 69 66 64 63 63 63 64 65 65 66 67 67 65 64 64 63 61 61 64 65 64
87 67 89 88 88 88 83 83 82 74 72 68 50 51 44 45 45 45 48 55 66 65 65 64 63 63 64 63 63 64 64 65 65 65 64 64 63 62 62 61 61 66 65
86 88 91 91 89 86 84 82 86 84 81 70 65 57 51 45 45 47 53 70 69 70 70 68 68 66 65 64 63 63 64 64 65 65 64 63 63 62 61 63 67 63 64
81 69 78 85 85 84 85 85 84 82 80 80 80 70 67 64 69 70 70 70 70 71 70 69 71 71 70 68 66 66 66 64 64 63 63 63 62 64 66 69 70 66 65
83 83 75 85 85 85 86 83 83 80 78 77 70 63 50 75 75 72 72 72 71 72 73 71 70 69 70 68 67 65 65 65 65 64 64 65 66 68 71 71 70 69 68
85 84 85 85 83 81 80 80 79 78 76 75 74 67 50 75 75 73 73 74 74 73 74 70 71 73 72 69 68 67 66 66 66 66 67 69 70 69 69 70 70 68 68
86 83 82 81 79 73 78 80 79 79 78 76 75 72 74 74 72 73 73 74 75 75 75 73 72 71 72 71 70 69 68 69 69 69 67 67 69 69 70 69 69 67 65
78 77 76 75 74 73 72 75 74 67 76 76 73 74 73 74 77 76 75 74 73 73 74 74 72 72 70 72 71 71 69 71 72 73 71 69 69 66 70 69 68 67 66
70 70 71 69 67 70 70 69 69 66 66 65 69 67 66 70 71 69 75 78 75 77 76 76 76 74 73 70 71 71 51 52 69 63 74 74 72 70 70 69 68 68 67
66 66 66 66 65 66 66 65 65 67 66 64 63 61 62 63 64 65 65 66 66 67 74 77 76 74 75 77 71 48 40 49 58 49 72 72 71 70 69 69 69 69 68

GFSGL_sfc_temp_051.txt.gz
Temp
80 80 80 80 80 81 77 79 79 77 79 78 78 80 80 79 78 77 75 76 75 75 75 73 73 72 71 71 71 72 72 70 68 69 71 73 72 72 72 71 75 73 72
82 81 80 81 80 79 80 78 80 81 77 80 79 80 80 80 79 78 77 79 75 74 74 73 73 76 71 70 71 71 72 71 70 68 69 71 71 71 72 71 75 79 74
82 82 80 80 80 79 80 81 80 81 82 80 80 80 80 80 79 80 78 78 76 75 76 75 75 74 73 75 70 71 70 72 70 68 68 69 70 70 69 71 71 72 75
84 82 81 80 81 82 81 81 82 81 81 82 82 81 80 81 81 81 80 79 78 78 77 78 78 76 75 75 72 73 71 70 69 68 67 68 69 70 72 71 68 69 72
84 83 82 82 82 82 82 82 81 82 81 82 82 81 81 82 83 81 81 80 79 78 79 78 79 79 77 75 77 75 75 72 70 73 67 67 68 67 72 70 72 73 71
88 84 85 83 83 82 82 82 82 81 82 81 80 82 81 83 76 73 79 81 80 80 78 79 80 76 74 71 72 74 77 76 75 73 76 74 76 73 74 74 74 67 65
87 87 86 84 82 82 82 82 81 81 82 81 81 81 81 82 71 70 72 83 81 81 80 80 80 83 75 77 70 70 71 71 75 78 75 75 76 77 75 73 75 71 68
87 85 86 84 82 82 82 81 82 83 82 82 81 82 81 83 70 68 70 82 82 82 82 81 81 81 81 77 77 74 76 75 74 77 78 78 76 79 75 73 71 69 69
86 83 85 84 83 82 81 82 83 83 82 82 82 82 81 82 66 65 67 79 82 82 82 82 82 81 75 67 77 75 75 76 73 68 71 71 69 69 71 69 67 66 63
85 82 82 85 84 82 82 83 83 83 83 83 83 83 78 82 69 63 66 81 80 81 83 82 71 76 67 63 75 77 73 75 76 74 68 67 67 70 69 71 68 65 63
86 83 82 83 83 84 84 84 83 82 82 82 82 83 83 81 81 62 61 80 82 81 81 82 83 64 62 60 62 78 77 78 74 75 71 68 68 69 70 69 69 67 65
81 80 79 79 82 82 81 82 82 82 80 80 80 81 83 83 68 63 59 62 73 81 81 83 80 63 57 58 60 65 64 65 75 71 69 67 67 67 67 68 69 69 69
79 78 78 79 80 82 79 80 80 81 80 79 79 79 80 82 80 62 59 59 61 73 82 78 64 57 58 56 57 59 58 68 72 71 70 68 68 68 67 68 67 69 66
77 77 76 78 76 78 78 81 81 80 79 79 78 78 79 77 80 81 68 64 60 63 67 71 67 64 60 64 63 59 63 67 70 71 70 68 67 66 66 67 66 66 63
75 77 77 78 77 75 59 57 75 64 69 81 80 77 78 78 76 65 68 68 70 66 68 71 72 68 68 67 65 64 63 66 68 70 69 67 65 65 65 66 66 64 61
75 76 75 75 77 73 63 59 48 47 45 45 49 68 58 54 50 48 48 49 51 52 66 69 70 70 68 67 66 65 66 66 69 69 69 67 64 64 63 64 63 62 60
75 75 76 74 77 73 69 65 60 55 47 45 45 48 54 50 47 45 46 48 53 59 67 65 65 64 64 64 64 64 64 66 66 66 64 64 63 64 62 62 62 61 60
76 68 74 75 75 77 73 70 66 63 65 59 50 48 47 49 47 46 47 55 62 62 63 63 63 63 62 62 61 62 63 65 65 65 64 63 63 62 61 60 60 60 59
76 76 75 78 78 79 77 73 71 70 65 59 58 53 49 44 46 46 48 62 61 61 61 61 61 61 61 60 60 61 61 64 64 64 63 63 63 62 60 60 61 58 58
75 67 70 72 75 77 75 73 73 70 67 64 64 59 60 57 61 61 62 62 62 61 62 62 62 63 61 62 60 60 60 61 63 63 63 62 61 60 60 62 62 59 58
76 74 69 71 71 73 72 72 71 69 66 64 60 56 54 62 62 62 62 62 62 62 62 63 65 65 62 62 61 62 62 62 61 60 61 61 60 60 61 63 62 61 60
73 75 75 74 69 68 69 68 69 68 66 64 60 58 49 64 63 62 63 63 64 64 64 64 64 63 63 62 62 61 62 62 60 60 60 60 60 60 60 62 60 59 59
73 73 74 71 70 66 66 67 68 67 67 64 62 61 63 64 64 66 66 65 65 66 66 66 64 64 64 64 63 63 63 63 62 62 61 60 60 60 61 62 64 62 60
71 69 68 67 66 66 65 64 64 60 63 63 64 65 64 64 64 65 65 64 65 66 65 65 65 64 64 63 63 63 63 63 63 63 65 61 63 62 64 60 59 60 61
66 66 65 65 64 64 64 63 61 61 60 59 59 59 60 59 59 60 60 62 58 56 61 63 64 64 65 64 64 64 57 53 61 57 66 66 63 62 65 63 60 59 57
61 60 59 59 59 59 59 58 58 58 56 56 55 53 53 53 53 53 53 55 53 51 49 50 48 46 47 49 51 46 39 45 52 50 65 65 64 64 64 64 64 59 59

GFSGL_sfc_temp_057.txt.gz
Temp
78 78 77 76 76 77 74 74 74 72 73 74 73 74 75 75 75 73 73 73 73 73 72 71 70 70 68 68 66 66 65 65 64 67 66 67 67 68 71 72 71 69 71
80 79 78 77 76 76 75 75 74 74 72 73 73 73 75 76 75 75 74 76 73 72 73 72 72 73 69 68 66 66 66 65 66 65 65 66 66 66 68 67 71 74 72
80 79 78 77 76 75 75 76 75 75 74 72 74 74 74 75 75 75 76 76 74 75 74 73 74 71 71 70 67 66 65 67 64 64 67 65 66 65 65 65 66 68 71
80 78 77 77 76 76 76 76 76 76 75 73 75 76 75 75 76 76 76 75 75 75 75 74 75 73 74 73 70 70 69 66 64 63 64 64 65 66 65 64 64 64 70
79 77 77 77 77 77 76 76 76 76 76 76 76 75 76 76 77 76 76 75 74 74 74 75 75 76 74 74 75 74 70 68 68 65 66 61 63 64 64 65 71 73 70
79 77 78 77 76 76 76 75 75 75 76 76 75 76 75 78 72 70 76 77 76 75 74 74 75 74 73 70 70 72 75 71 70 70 72 71 72 68 73 73 69 64 66
79 78 78 77 76 76 76 76 74 74 75 75 75 76 76 76 68 68 70 79 77 77 76 77 76 77 72 75 69 68 68 69 72 78 71 73 73 74 74 67 73 73 74
78 78 78 77 76 76 76 75 75 75 75 74 75 76 76 77 67 66 68 76 78 78 77 77 77 77 76 74 74 72 71 73 72 73 76 78 78 78 76 77 72 70 72
78 78 78 78 77 76 76 76 77 76 76 76 77 76 76 76 65 64 66 75 76 77 79 78 78 77 72 67 73 73 73 73 70 67 68 69 69 69 69 67 66 65 65
79 79 79 79 78 77 77 77 78 78 78 78 77 77 73 77 65 62 64 76 74 76 77 78 68 74 66 64 72 74 73 75 74 74 73 69 67 70 65 68 68 65 65
79 78 78 80 79 79 78 79 78 78 78 77 77 78 78 75 76 61 60 76 77 76 76 77 78 64 61 61 61 76 74 77 74 74 74 74 73 71 70 68 68 67 66
78 79 78 78 79 80 78 78 78 77 76 76 76 77 78 79 66 61 59 61 71 77 77 78 77 63 59 58 60 64 62 62 71 73 74 74 72 72 71 70 69 68 69
72 73 74 76 80 81 78 78 76 77 77 76 76 76 76 76 77 61 58 59 60 71 79 74 65 59 56 58 57 59 58 66 69 70 70 71 72 73 74 70 70 70 69
71 71 71 72 72 74 77 79 78 78 76 77 75 75 75 74 74 74 67 65 60 63 66 70 66 64 62 65 64 60 63 67 68 68 69 70 70 70 69 68 67 67 63
70 70 71 71 70 71 70 67 75 77 74 78 78 76 74 73 74 69 70 72 71 68 68 70 68 68 68 68 67 68 67 65 65 65 66 67 67 68 66 66 65 63 61
68 68 68 70 71 70 66 60 48 48 47 47 49 63 73 64 58 54 53 53 54 53 67 69 70 70 70 69 68 67 65 65 65 65 66 65 65 64 63 63 63 63 60
67 68 69 68 70 67 66 65 65 56 46 44 44 48 48 58 49 49 48 48 48 55 69 68 69 68 69 68 67 66 65 64 65 63 62 63 63 62 61 61 62 61 60
67 60 68 69 70 69 66 66 65 64 63 62 49 47 44 45 44 44 46 53 60 62 67 66 65 64 63 63 62 61 61 60 61 63 64 62 62 61 61 60 60 60 60
66 67 68 68 69 68 68 66 65 64 63 61 59 53 46 43 44 46 48 66 66 66 64 64 62 62 61 59 59 59 59 59 60 61 63 63 62 61 61 61 59 54 56
66 63 62 66 67 68 69 67 64 63 61 60 62 61 59 58 63 63 63 63 63 63 62 60 60 59 59 58 58 58 58 59 61 61 62 62 62 61 61 60 59 56 55
66 67 65 67 66 67 70 68 67 64 62 61 63 61 53 65 63 63 63 62 62 62 60 60 59 59 59 58 58 58 58 60 61 61 62 62 61 60 60 59 56 55 54
66 67 66 66 65 66 68 68 65 63 62 62 61 57 47 63 63 62 60 60 60 60 60 60 60 60 60 59 59 59 60 61 59 61 61 61 60 60 60 59 56 55 54
65 66 65 64 64 60 62 62 61 62 62 62 62 60 59 61 61 59 59 59 59 60 59 60 60 60 60 60 60 60 60 60 61 59 60 60 58 57 56 56 55 56 54
62 63 63 61 61 62 61 60 59 56 61 59 59 60 58 58 55 54 54 54 53 51 50 50 51 51 52 54 58 62 62 61 60 60 59 58 58 54 56 56 55 55 55
56 57 62 62 61 59 58 58 58 59 57 56 55 54 53 53 53 50 50 49 48 47 46 45 46 46 47 47 46 45 39 34 48 49 59 59 58 58 57 57 56 56 54
51 51 52 52 52 53 53 52 50 50 50 50 50 49 49 49 49 49 49 49 46 45 46 45 44 43 43 42 40 36 33 35 42 36 53 60 59 60 58 58 58 57 58

GFSGL_sfc_temp_060.txt.gz
Temp
76 76 76 75 75 75 74 73 73 72 72 73 74 75 75 76 76 75 75 76 75 75 75 74 74 74 75 74 73 72 71 70 69 74 72 74 74 73 75 76 75 75 76
77 76 76 76 75 75 74 74 74 73 73 74 74 75 75 76 76 76 75 77 76 76 76 75 75 76 74 74 73 71 71 70 71 68 71 73 72 74 74 73 75 77 76
78 77 76 76 75 74 75 74 74 74 73 74 74 74 75 76 76 76 76 76 76 77 77 76 77 76 75 75 74 73 73 72 71 70 72 72 73 74 72 72 72 73 76
79 77 76 75 75 76 76 75 74 74 73 74 74 75 75 76 76 77 77 76 76 77 77 77 77 77 76 76 75 74 74 72 70 70 72 72 72 74 72 73 73 72 73
77 77 76 76 76 75 74 75 76 74 75 75 74 75 76 77 78 76 77 76 76 76 76 77 78 77 74 75 78 76 74 74 74 72 72 73 72 73 71 76 72 76 74
76 76 76 76 75 74 74 74 74 74 75 75 74 75 75 78 72 70 75 77 77 76 76 76 77 74 73 70 69 71 76 74 73 74 75 73 73 74 76 74 73 72 70
76 76 76 75 74 75 75 74 73 73 74 74 75 75 75 75 68 67 69 78 78 77 77 77 77 79 74 77 70 68 68 68 71 77 74 74 74 76 75 73 71 73 72
75 75 75 75 74 74 74 74 74 74 73 73 74 75 75 76 66 65 67 76 77 78 78 78 77 78 77 76 76 76 75 75 74 75 75 77 78 79 77 75 75 72 69
75 75 75 75 74 74 73 74 75 75 74 74 75 74 74 75 64 64 66 76 77 77 78 78 78 78 72 66 76 75 76 77 72 66 67 68 67 67 70 71 69 66 67
76 76 77 76 76 74 75 75 76 76 76 77 76 76 72 76 65 61 65 77 75 77 77 77 68 75 66 63 74 76 75 77 78 78 77 71 66 69 65 68 70 67 67
77 77 76 77 76 76 76 76 76 76 76 76 76 77 77 75 75 61 60 75 77 77 77 78 79 64 61 60 61 77 75 77 76 76 76 76 75 74 75 72 69 68 67
76 76 76 76 78 78 76 76 76 76 75 76 76 77 78 78 65 61 59 60 70 77 77 79 78 62 59 58 61 64 62 63 73 73 74 74 74 74 74 72 71 69 69
73 74 74 76 77 78 76 76 76 76 76 76 76 76 77 79 79 61 58 59 59 72 79 75 65 58 57 59 58 59 59 67 69 70 71 72 74 75 72 72 72 72 71
73 73 74 73 73 75 77 78 77 77 76 77 76 76 77 77 77 77 71 67 60 63 65 71 67 65 63 66 65 62 64 68 69 70 71 72 70 70 69 70 69 69 63
71 72 73 74 72 74 74 73 77 78 74 78 78 78 76 75 76 70 71 74 74 69 68 72 71 71 71 70 70 71 69 68 68 69 69 67 67 68 69 70 67 65 65
69 70 70 72 73 73 71 67 49 50 48 47 49 61 76 64 59 55 53 53 54 53 67 71 71 71 71 71 71 70 69 67 69 68 67 68 68 66 66 65 65 66 64
65 68 70 68 72 71 69 68 68 58 47 45 46 47 47 57 52 50 49 48 49 53 71 71 71 72 71 72 71 70 68 69 69 68 68 65 66 65 65 64 65 65 62
64 57 66 70 71 72 70 69 69 68 68 66 48 48 47 47 48 47 47 51 63 57 70 71 70 69 70 70 69 68 67 67 67 65 65 67 65 65 63 64 64 62 61
63 65 68 69 70 68 71 71 69 68 68 68 62 53 47 42 43 43 45 71 72 69 68 68 68 67 66 68 67 66 66 66 66 65 65 66 66 65 64 64 63 56 57
63 60 61 67 70 70 71 70 69 68 68 67 65 66 59 56 63 64 65 68 70 68 67 67 66 65 64 66 65 65 65 61 63 64 64 66 64 66 64 63 63 63 61
62 65 63 67 70 70 70 71 70 69 69 68 67 64 54 67 66 66 67 66 66 65 64 64 63 63 63 65 65 64 64 63 63 64 65 65 65 65 64 64 64 66 65
60 63 66 68 69 69 69 71 70 69 68 67 66 59 48 69 68 65 65 65 65 65 67 66 64 64 67 66 66 65 65 66 64 63 65 64 64 64 65 65 65 65 64
60 62 64 67 68 63 65 68 69 67 66 66 66 62 64 66 66 65 61 62 61 59 59 63 63 63 64 66 67 67 67 68 68 67 65 63 63 63 63 66 64 62 61
60 63 64 66 67 67 66 66 65 57 65 66 65 63 63 62 61 59 58 56 54 52 53 54 54 53 53 52 52 53 54 54 64 68 67 66 63 59 64 66 66 65 65
56 58 60 62 61 58 56 54 53 53 53 54 54 54 55 56 54 53 51 51 50 50 49 49 48 48 48 47 47 48 40 34 46 45 67 67 66 65 66 66 67 66 65
49 49 48 48 48 49 48 48 47 47 47 47 47 47 47 48 48 49 49 48 48 48 46 47 46 47 47 46 45 37 33 35 47 35 60 65 66 66 66 66 66 67 66

GFSGL_sfc_temp_063.txt.gz
Temp
82 81 81 82 82 82 82 82 83 83 82 83 83 84 84 84 84 83 83 84 83 83 84 83 83 83 86 87 86 85 84 82 81 87 87 87 83 84 87 86 86 86 87
83 82 82 82 82 82 82 83 83 82 82 83 83 83 84 85 84 83 83 86 84 83 84 84 83 86 82 83 86 82 84 83 82 78 84 86 83 85 85 84 86 91 89
84 83 82 82 82 81 82 82 83 82 82 83 83 82 83 84 84 84 84 84 85 85 85 85 85 85 83 85 84 85 86 84 82 81 82 87 86 86 84 83 82 84 88
86 85 82 81 82 83 82 82 82 82 82 82 82 83 84 85 85 85 85 84 84 86 86 86 86 85 84 84 84 83 83 83 84 82 83 85 86 86 84 82 84 88 85
84 83 82 82 82 82 82 82 82 82 82 83 82 83 84 85 88 84 85 85 84 84 85 85 86 83 77 79 86 85 83 83 84 84 84 84 85 86 83 87 85 87 86
82 82 82 82 82 81 81 81 81 81 81 82 81 82 83 86 76 71 79 86 85 84 84 85 85 78 77 70 70 71 79 83 80 83 85 83 82 83 86 84 84 83 81
82 82 82 81 80 80 81 81 80 81 81 81 81 82 82 83 69 68 70 84 86 85 84 85 86 90 80 84 73 68 68 68 70 81 80 82 82 83 83 80 81 81 81
81 81 82 81 80 81 80 79 80 81 81 81 81 82 82 83 67 65 68 81 83 84 85 85 84 85 86 84 84 84 85 86 82 81 81 81 83 84 83 82 78 75 75
81 81 81 81 81 81 79 80 81 80 80 80 81 81 81 82 64 64 67 82 83 82 84 85 85 84 76 67 81 82 83 85 79 68 69 68 66 66 70 76 73 70 70
82 82 82 82 81 80 80 80 81 81 82 84 82 82 76 81 66 61 66 83 82 84 84 83 70 79 68 63 79 81 81 83 85 85 85 76 70 76 65 72 72 70 70
84 84 82 82 81 81 81 81 81 81 82 81 82 83 82 80 80 60 59 81 84 85 85 87 87 64 61 59 62 82 80 82 81 83 82 82 82 81 82 77 73 72 70
83 83 82 81 83 84 81 81 81 80 80 80 80 82 85 83 67 63 58 61 73 83 84 88 86 62 58 57 62 66 62 65 83 79 76 76 77 77 77 75 75 73 73
82 81 81 82 82 84 81 80 81 81 82 81 83 83 85 88 86 62 58 57 60 76 86 80 67 59 57 61 58 60 60 73 72 72 73 76 77 77 78 76 75 76 77
80 81 81 81 80 83 84 84 84 84 84 84 84 84 86 87 87 88 80 71 61 66 68 77 74 68 64 68 68 66 68 72 72 73 73 75 77 75 73 73 76 78 73
81 82 81 82 80 83 84 85 85 86 82 86 87 87 86 86 87 76 78 86 85 77 74 76 75 73 72 72 72 74 74 72 70 70 72 72 71 72 72 71 76 70 72
76 80 75 78 82 84 84 81 52 54 50 50 51 69 87 67 58 55 53 53 54 54 70 74 73 74 74 74 73 73 73 70 72 72 73 72 71 70 70 70 74 73 75
72 72 70 71 77 73 78 80 80 64 48 47 48 48 49 56 50 49 50 48 49 54 73 73 74 75 74 73 74 73 72 74 77 74 72 72 71 74 70 76 72 73 73
70 58 77 78 79 81 76 75 77 77 78 81 54 53 47 45 46 46 46 52 64 59 71 74 75 75 76 74 73 73 73 73 73 73 72 74 72 70 68 70 70 68 72
72 75 75 79 81 77 82 82 80 76 76 81 72 57 51 43 44 44 45 74 78 79 78 75 75 78 76 73 74 72 73 72 73 71 70 72 70 69 69 70 71 60 64
72 62 63 74 79 82 83 82 83 82 82 82 82 81 69 59 68 68 64 69 77 80 82 80 76 72 71 71 70 70 72 71 74 73 69 78 76 77 74 72 70 73 68
68 72 65 74 78 81 83 83 84 82 83 84 83 79 56 76 79 77 71 73 78 82 79 78 71 70 68 67 68 69 73 76 70 70 73 75 75 71 72 69 69 72 72
63 68 73 75 78 78 79 81 82 82 81 83 84 79 48 67 81 81 79 78 79 79 80 71 71 77 77 76 75 72 74 77 73 72 73 70 71 68 68 67 68 70 75
62 65 71 73 75 70 75 79 81 81 76 77 79 80 69 73 79 80 80 79 78 75 77 79 78 77 77 77 78 77 77 78 77 74 72 70 68 68 68 67 69 70 73
62 64 69 73 74 76 78 79 77 61 72 73 71 69 67 67 66 64 67 68 68 66 69 72 70 70 66 67 68 69 69 72 75 74 73 68 68 64 67 69 74 72 72
54 53 54 55 57 60 62 62 61 61 60 59 57 57 55 54 52 51 51 52 54 55 57 59 61 61 59 59 56 56 45 36 50 50 70 71 70 67 67 69 73 75 73
48 48 47 46 46 47 48 48 47 48 48 48 48 48 48 48 48 47 47 47 48 48 49 50 50 51 52 48 44 37 33 34 46 37 65 67 68 68 69 69 71 70 71

GFSGL_sfc_temp_069.txt.gz
Temp
89 88 87 88 89 88 91 90 90 91 92 91 91 90 90 90 90 89 89 92 88 88 90 90 89 89 92 95 96 94 93 92 87 91 96 97 94 90 92 92 92 93 93
90 89 88 88 89 89 88 91 91 89 90 91 90 90 90 90 90 89 88 91 89 89 89 89 89 92 87 88 91 89 91 92 90 83 88 91 90 92 91 89 92 96 94
91 91 90 89 89 88 89 89 91 89 89 90 89 89 89 90 90 90 89 89 91 90 90 90 90 90 88 90 91 91 93 91 90 88 88 94 95 96 93 91 90 91 95
94 93 89 88 89 90 90 89 90 90 88 89 89 89 90 90 91 91 90 89 90 91 92 91 91 91 90 89 89 88 88 88 89 89 90 92 94 95 96 93 93 97 97
94 93 91 89 89 89 89 89 89 90 89 89 89 89 90 91 94 90 91 90 89 89 91 92 92 90 81 83 92 89 88 89 90 91 91 93 94 94 90 94 92 94 94
93 92 91 90 88 88 88 88 88 88 88 88 88 88 89 93 80 74 85 91 91 89 89 90 91 83 81 74 73 73 78 83 84 88 90 88 85 88 93 92 90 88 86
93 92 91 89 88 87 88 87 87 87 88 87 88 88 88 89 74 71 74 91 91 90 89 89 92 97 84 92 75 72 72 70 71 81 81 83 83 86 86 84 83 85 85
91 92 91 90 88 88 87 87 86 88 87 87 87 88 88 90 72 67 70 88 88 89 90 90 89 89 90 90 92 91 90 89 83 83 83 83 85 86 85 86 84 83 85
91 91 91 91 88 87 87 86 87 87 88 87 88 87 87 88 68 66 70 89 89 87 89 89 89 89 79 70 87 86 86 88 85 72 72 72 71 70 75 84 82 81 81
92 91 91 91 88 87 87 87 88 88 88 91 90 89 82 88 69 64 70 90 88 91 89 87 74 82 71 66 84 85 84 86 89 90 91 82 71 76 67 78 85 78 78
94 93 91 90 88 88 88 88 88 87 88 88 89 90 89 87 86 63 61 86 91 93 93 95 96 68 65 64 64 85 83 84 83 87 89 91 86 89 86 83 81 82 80
92 92 90 89 91 91 87 87 87 86 85 86 86 89 92 90 72 63 59 63 77 89 91 98 96 67 61 61 65 68 64 67 85 86 87 88 88 87 90 88 87 84 84
90 89 89 88 89 90 87 86 87 86 88 87 89 89 92 96 92 64 58 59 62 78 91 84 63 59 58 60 57 61 61 83 84 84 84 84 86 89 88 84 85 83 80
87 87 88 87 87 89 90 90 90 90 88 92 91 92 93 96 97 97 83 73 62 70 73 82 79 69 60 70 77 71 82 86 85 84 85 87 89 88 86 86 79 76 74
87 88 88 89 86 88 91 92 92 92 89 93 95 96 95 95 97 87 87 90 87 80 80 85 86 87 87 88 88 86 87 85 85 85 86 87 84 83 82 79 75 74 77
82 87 90 91 89 91 91 87 55 62 54 55 55 72 89 62 54 55 54 54 57 58 80 87 88 89 90 90 83 80 85 82 87 87 82 80 78 76 75 75 75 75 77
76 87 92 87 92 92 92 91 88 71 55 52 54 54 55 55 53 53 51 50 54 61 87 89 89 91 86 83 84 83 81 82 82 82 80 80 80 77 72 73 76 76 78
74 64 85 86 91 93 93 92 93 89 87 88 62 62 52 49 52 50 51 55 83 76 86 89 89 90 89 89 88 82 88 89 84 84 82 81 79 75 73 72 74 77 82
67 69 67 75 84 82 85 93 93 90 90 91 87 63 57 47 46 46 48 80 86 89 92 89 89 89 88 86 87 84 83 82 84 84 81 79 78 77 73 75 79 68 73
70 64 65 72 73 80 83 87 87 84 79 82 85 82 76 65 76 75 71 77 83 87 91 95 95 93 91 89 87 85 83 80 81 80 79 81 81 82 78 81 85 84 84
73 72 69 72 75 71 76 89 86 83 77 86 88 86 63 81 88 90 90 86 85 87 89 89 87 83 87 87 81 86 82 82 81 82 83 83 83 81 78 80 85 87 85
76 78 77 76 77 76 76 74 72 78 89 85 90 76 55 89 92 91 94 96 94 91 93 85 89 92 91 86 85 86 81 81 83 80 81 82 83 84 86 83 85 85 85
70 76 79 83 81 74 81 81 82 79 85 90 93 93 89 88 90 81 79 76 78 77 80 85 85 88 88 90 90 88 86 87 82 86 84 83 85 84 83 81 81 82 82
64 66 68 68 67 74 71 74 76 66 73 75 71 74 74 76 73 72 71 70 68 69 70 68 72 69 69 70 75 80 66 61 65 80 83 84 84 79 83 81 78 74 73
53 51 53 55 57 59 59 55 59 61 61 59 57 57 57 56 55 55 55 57 57 56 54 55 56 59 56 52 52 54 43 36 48 43 70 79 79 78 78 77 73 72 74
47 46 45 45 45 47 46 45 45 45 45 46 45 45 45 45 45 46 47 47 48 48 47 47 47 47 48 47 45 38 34 35 43 36 60 74 75 75 72 70 70 71 74

GFSGL_sfc_temp_072.txt.gz
Temp
84 83 83 83 83 83 85 84 85 85 87 87 87 86 85 85 85 84 83 83 81 81 82 83 81 82 83 83 83 83 81 81 76 79 82 83 84 84 84 84 84 83 83
85 83 83 84 83 83 83 85 86 85 85 87 86 86 85 85 84 83 83 85 83 82 83 83 83 87 82 82 82 81 82 83 80 77 80 80 81 82 82 81 85 90 85
87 86 84 84 84 83 82 84 85 84 85 86 86 84 85 85 84 84 84 83 84 84 84 83 83 83 82 82 82 81 82 83 80 78 78 82 82 83 82 83 81 82 87
89 87 84 83 84 85 84 82 85 85 84 85 84 84 85 85 85 85 85 83 84 85 85 84 84 83 82 82 83 81 82 81 80 79 79 80 81 82 82 80 80 82 82
89 87 85 85 85 84 84 83 83 85 85 84 84 84 85 86 89 84 84 84 83 84 85 85 85 84 80 81 85 82 81 81 82 81 80 79 79 79 78 80 79 80 83
88 87 86 85 84 84 84 84 83 84 84 84 83 84 84 88 79 74 81 84 84 83 82 83 85 79 80 74 72 73 77 80 78 79 79 78 77 79 80 79 80 79 77
88 87 86 85 84 83 84 83 83 82 84 83 83 84 83 84 73 71 73 85 84 83 83 83 85 91 80 85 74 72 72 71 72 79 77 77 77 79 79 78 78 78 78
87 87 87 85 84 83 83 83 83 83 83 83 83 83 84 85 72 69 70 82 83 83 83 83 83 83 83 83 84 83 81 81 79 78 77 79 80 81 81 81 79 78 79
88 87 87 86 84 84 82 82 83 83 83 83 84 83 83 83 68 68 69 80 83 81 83 83 83 83 77 73 80 80 80 81 81 69 71 72 72 72 75 80 78 78 76
88 88 88 87 85 84 83 83 83 84 84 86 85 85 80 83 69 65 69 85 82 83 82 81 72 79 71 68 78 80 79 81 82 83 83 79 69 73 67 73 79 76 76
91 91 88 88 86 85 84 84 84 84 84 83 83 85 85 83 83 63 61 82 84 84 85 85 86 69 65 63 64 81 79 80 79 80 82 83 83 84 82 78 79 79 76
89 88 87 87 89 89 84 84 84 83 82 82 82 84 87 85 71 63 60 65 75 83 84 88 86 66 61 62 64 68 65 65 80 80 80 80 81 83 83 83 82 80 79
87 86 87 87 87 87 84 83 83 83 83 83 84 83 86 88 87 65 60 60 63 78 85 78 63 60 58 57 59 62 60 74 78 78 79 80 82 82 83 82 83 82 80
85 85 86 85 84 85 87 86 85 85 83 85 85 85 85 87 88 88 75 68 62 67 71 78 75 69 61 67 72 65 73 79 80 80 81 82 83 82 81 80 79 78 74
86 87 86 87 83 85 86 86 86 87 85 85 87 87 87 86 88 81 79 81 79 73 76 79 79 79 79 80 82 83 79 80 79 81 81 81 81 81 79 81 77 73 72
83 86 86 87 86 86 85 81 56 64 59 60 66 77 73 60 52 51 52 61 61 59 75 79 79 80 81 81 82 82 83 78 82 82 81 81 79 78 76 76 74 73 72
71 73 83 80 85 85 84 85 81 68 52 50 54 56 63 56 50 49 49 51 56 59 81 80 81 83 83 84 85 83 80 80 81 81 80 80 78 75 73 74 73 72 71
69 60 70 74 83 85 86 86 86 81 80 80 57 59 51 51 50 50 50 59 74 72 84 84 83 84 84 83 83 82 82 81 81 81 81 80 77 75 74 72 72 72 72
65 63 64 68 69 76 90 88 85 87 85 86 85 60 52 46 49 49 51 83 83 85 85 84 85 86 86 85 84 83 81 81 81 81 80 78 77 76 73 73 74 64 67
64 63 61 65 68 67 72 78 73 74 74 74 78 86 73 65 73 74 72 75 79 83 85 85 86 86 86 83 83 83 81 80 80 79 76 76 75 76 75 76 76 74 73
59 67 65 66 67 69 69 70 72 73 75 76 80 80 66 78 80 81 71 74 74 78 81 80 82 83 84 83 82 81 79 80 79 80 80 78 76 78 78 78 78 75 75
61 63 67 64 65 68 68 69 71 72 71 69 70 70 52 74 76 70 68 68 65 66 73 75 72 70 66 69 78 79 80 82 81 78 77 80 79 79 78 79 78 77 77
60 61 60 59 61 60 64 64 63 65 65 63 61 62 62 63 66 63 61 60 60 58 61 67 64 63 62 62 63 64 59 58 58 64 71 76 78 80 79 78 78 77 76
57 56 55 56 54 58 54 54 54 52 54 56 57 56 55 56 54 56 57 54 54 52 52 54 55 52 52 52 52 53 50 46 50 59 60 63 73 72 76 77 77 76 75
50 48 47 46 49 48 47 47 47 49 49 48 47 48 48 47 47 49 49 50 50 48 45 45 46 47 46 45 45 45 38 35 46 40 57 63 67 70 73 72 73 73 73
47 45 44 44 43 44 44 43 42 43 43 43 43 43 44 44 43 44 44 44 44 44 44 43 43 42 43 42 40 36 34 35 42 39 54 62 62 60 59 63 67 70 70

GFSGL_sfc_temp_075.txt.gz
Temp
80 79 79 78 77 74 77 77 77 78 78 80 80 78 78 78 78 76 75 76 75 75 76 76 76 76 75 76 76 75 74 73 71 73 75 77 77 79 80 78 79 79 79
80 80 79 80 78 78 75 76 77 77 77 78 81 81 79 78 78 77 76 79 76 75 76 75 76 80 75 75 75 75 75 75 73 71 73 75 77 78 78 78 83 86 82
81 80 80 79 79 79 80 75 78 77 77 78 79 79 79 78 77 77 77 77 77 77 77 76 76 76 75 75 75 74 74 76 73 72 72 74 76 77 78 77 77 78 82
82 80 80 80 80 80 81 80 76 79 77 78 78 78 78 78 78 77 78 77 76 77 78 77 77 77 76 76 76 75 76 75 74 73 72 72 73 79 75 74 75 75 76
82 81 80 81 81 81 81 79 80 79 81 77 78 77 78 79 82 77 78 78 77 76 77 78 79 79 76 76 79 76 75 74 73 73 72 72 72 72 71 73 72 73 77
83 81 82 81 81 81 80 80 79 78 81 81 80 79 78 83 75 73 78 77 79 78 77 77 78 77 77 73 73 73 77 75 73 73 72 71 71 71 73 72 73 71 71
86 83 82 82 80 80 80 80 78 79 79 79 80 80 79 80 71 70 73 82 79 79 80 79 78 85 76 78 73 71 71 70 73 80 75 74 74 74 73 72 72 73 72
84 84 83 82 81 80 80 80 80 80 80 81 80 80 80 80 70 68 71 80 80 79 78 79 80 80 77 77 77 78 77 78 76 75 74 78 78 77 75 79 77 74 74
83 84 83 82 81 80 80 80 81 81 80 81 82 80 80 80 67 67 67 72 78 77 79 80 79 78 73 69 74 73 74 75 75 68 69 70 70 71 73 74 73 71 73
82 83 84 83 82 80 80 81 82 82 82 82 81 82 77 80 68 65 67 79 74 77 76 76 69 75 68 66 76 78 76 78 74 75 74 69 66 71 68 72 76 73 72
82 85 83 84 83 82 82 82 82 81 82 81 80 82 82 79 80 63 61 80 80 79 80 79 80 66 62 61 63 79 78 80 76 73 74 74 75 76 78 71 73 75 70
83 83 84 83 84 84 82 82 82 81 80 80 80 80 82 82 69 64 60 63 74 80 80 82 82 66 62 61 62 65 65 64 71 72 72 71 73 75 79 77 76 75 76
69 82 81 83 84 85 82 81 80 81 80 79 79 79 80 83 83 64 60 59 62 77 83 78 69 63 58 58 59 61 60 66 73 72 73 75 75 77 77 76 77 77 77
69 78 83 82 81 85 83 83 82 81 80 80 79 79 80 82 83 83 72 65 61 65 71 74 65 65 64 68 66 61 62 68 71 73 74 75 75 75 74 75 75 75 73
67 79 83 84 80 83 83 82 82 84 81 81 81 82 81 80 82 77 76 77 75 70 72 76 74 72 74 74 71 72 67 69 71 73 73 73 73 74 74 75 74 72 71
64 72 78 80 78 82 82 74 56 62 60 59 62 76 82 64 63 61 57 58 60 58 68 74 73 74 73 73 73 74 75 71 74 74 74 74 74 73 74 74 74 73 71
62 62 67 67 75 78 78 78 74 66 54 51 52 60 56 64 50 52 52 53 52 58 74 74 75 74 74 75 75 76 75 76 76 74 74 74 74 73 72 73 72 71 71
63 59 65 69 68 71 76 76 77 74 73 70 53 55 50 50 50 48 50 54 60 63 75 74 73 74 74 77 77 75 75 75 75 74 74 74 73 73 72 71 71 71 71
59 63 63 66 67 64 70 75 76 74 75 73 63 56 49 48 49 49 50 72 70 71 73 73 74 74 74 74 75 74 74 75 74 74 75 74 74 73 72 72 71 63 66
58 59 61 63 65 66 67 71 72 71 71 69 69 67 61 60 64 65 66 68 69 70 72 72 72 72 72 73 73 75 74 73 74 74 73 73 73 74 73 72 72 70 69
58 60 63 64 66 64 64 67 69 69 67 67 65 62 59 69 66 64 61 63 63 63 64 61 60 59 58 59 59 62 72 73 73 73 73 72 72 71 71 71 71 70 70
55 56 56 58 61 60 59 61 61 61 61 61 60 58 53 61 59 58 56 54 54 55 55 60 57 54 52 51 52 53 55 56 58 59 64 68 71 71 71 70 70 69 69
52 52 52 52 53 53 54 54 55 57 57 56 54 54 53 52 52 51 52 51 49 49 50 49 48 47 48 48 49 49 49 49 51 55 57 60 64 68 71 70 69 67 67
47 47 49 49 48 47 49 48 48 48 50 48 48 47 47 47 47 47 47 48 46 45 46 47 45 44 45 45 45 46 45 44 50 52 55 59 62 62 67 68 69 69 69
45 44 44 44 44 43 44 45 45 45 44 43 44 44 43 44 44 44 44 44 43 43 43 42 43 42 42 42 42 41 37 36 44 41 57 60 61 59 59 62 63 66 66
46 44 43 42 41 41 41 41 40 41 40 41 41 41 41 41 41 42 42 42 42 42 42 42 42 42 42 41 40 37 35 35 41 39 53 53 52 50 53 56 57 60 61

GFSGL_sfc_temp_078.txt.gz
Temp
78 78 78 77 73 72 73 75 75 76 76 77 78 78 77 76 75 73 73 74 73 73 73 73 73 73 73 72 73 72 71 70 68 71 70 74 75 76 78 77 77 77 78
79 78 77 78 77 72 74 74 75 75 75 76 77 78 78 77 75 74 73 75 73 73 74 73 73 77 73 73 72 73 72 71 70 69 70 72 74 76 76 76 81 84 80
79 79 78 78 77 78 76 72 74 74 74 75 76 78 78 78 76 75 75 74 74 74 74 74 74 74 73 73 73 72 72 73 71 69 70 71 73 74 75 75 76 76 79
77 79 77 78 78 79 80 75 73 76 73 75 76 78 78 78 78 77 75 74 74 75 75 74 75 74 74 74 73 73 73 73 72 71 70 70 71 73 72 71 72 71 73
80 75 77 78 79 79 80 79 76 72 78 75 77 77 78 78 80 78 77 75 73 73 74 75 75 75 74 74 76 73 73 72 71 71 70 70 71 70 70 71 71 71 72
79 78 74 79 78 78 78 79 78 76 76 73 75 78 76 81 73 71 75 76 75 74 74 73 75 75 73 71 71 71 74 73 72 71 72 72 72 70 70 70 70 68 71
80 80 79 76 78 78 78 78 77 77 80 77 76 76 77 78 69 69 71 77 76 76 75 76 74 81 74 76 71 69 69 69 71 76 73 73 72 72 71 70 70 70 70
74 80 80 79 78 78 78 77 78 78 78 78 78 79 78 78 68 67 69 77 77 77 77 77 76 77 75 75 74 74 75 75 73 73 73 78 78 77 73 78 74 71 72
73 76 79 80 78 78 77 78 78 77 78 78 79 78 78 79 66 65 67 75 77 76 76 77 78 78 72 67 75 73 74 75 73 67 68 68 68 68 71 70 71 70 71
70 74 77 78 76 78 78 78 80 80 78 79 79 80 74 78 66 63 66 77 74 76 77 76 68 75 67 64 73 75 73 77 77 72 72 69 66 69 66 69 73 70 70
68 71 75 83 81 81 80 80 80 79 80 78 78 80 80 77 78 62 61 78 78 76 76 76 77 65 61 60 62 76 75 78 76 71 72 71 72 73 73 72 71 72 69
65 67 69 82 83 82 80 80 80 79 78 78 77 78 80 80 67 62 60 62 73 78 78 79 80 64 59 58 59 64 63 64 72 71 70 72 72 72 74 74 73 71 73
63 65 69 75 79 83 80 79 79 79 78 77 77 77 78 80 80 62 59 59 61 74 81 76 67 61 58 60 60 61 59 64 68 69 72 74 76 76 73 73 74 75 74
60 63 66 74 78 80 82 81 80 80 78 78 77 77 78 79 79 80 70 65 61 64 69 74 70 66 63 67 64 62 62 64 67 69 71 73 71 71 72 73 73 73 73
60 63 63 75 78 78 82 82 81 83 80 80 79 79 78 77 79 73 74 75 73 69 69 74 70 66 68 68 68 69 67 65 65 67 68 69 70 72 73 73 73 73 73
58 62 61 64 79 80 81 78 56 62 60 58 61 73 80 68 62 58 56 56 57 56 65 72 71 72 71 73 73 73 71 69 71 71 71 71 72 72 72 73 74 73 72
56 60 61 61 67 75 76 76 74 64 54 53 53 55 57 64 53 52 54 52 48 56 72 70 72 71 72 73 73 73 73 73 74 72 72 72 73 73 71 73 73 72 71
56 57 60 63 64 66 72 74 74 74 73 71 52 55 51 49 48 48 48 53 59 60 72 73 71 72 72 72 73 74 74 74 73 74 73 73 73 73 71 72 72 71 69
55 58 59 62 64 64 67 71 71 71 72 73 62 53 49 46 48 46 49 69 66 66 68 71 70 70 71 71 73 73 74 73 73 73 73 73 73 73 73 72 72 61 64
56 58 58 62 64 64 66 70 71 70 69 69 67 66 61 62 67 67 67 67 67 68 69 69 67 65 62 62 65 68 68 67 69 70 68 69 71 71 70 71 71 71 69
54 55 56 58 58 59 62 64 67 67 65 61 60 61 55 68 63 60 57 56 57 57 60 58 57 56 57 58 60 61 62 62 63 65 65 64 64 70 69 70 71 69 69
51 52 53 52 53 53 54 58 58 59 59 57 56 54 52 58 56 52 51 50 51 50 50 50 50 50 51 53 52 55 57 57 56 58 62 62 63 65 67 68 69 69 68
48 49 49 49 49 49 50 49 51 52 51 51 52 52 52 52 49 50 48 48 48 48 47 46 46 45 46 46 47 46 48 49 50 53 55 58 60 62 63 64 66 66 66
46 45 45 45 45 45 46 46 47 46 48 46 46 46 46 47 47 46 45 45 43 43 44 43 43 43 43 43 43 44 43 43 49 52 57 59 61 59 61 62 63 63 62
44 43 42 42 42 42 42 43 43 43 44 45 44 43 43 43 43 42 42 41 41 41 41 41 41 41 41 41 41 40 36 35 42 45 55 57 55 55 57 58 56 60 60
43 42 41 41 41 41 40 40 40 40 42 41 40 41 41 41 41 40 40 40 40 40 40 40 40 40 40 40 39 36 34 35 40 40 50 51 50 49 50 51 53 53 53

GFSGL_sfc_temp_084.txt.gz
Temp
76 76 75 73 71 71 73 74 75 75 75 75 76 76 76 75 76 74 75 76 75 75 75 75 75 76 77 76 76 76 75 74 74 77 76 78 79 80 82 82 83 83 84
76 76 76 75 73 72 72 73 75 75 74 74 75 76 76 76 76 75 75 76 75 75 76 74 75 77 75 75 76 75 76 75 75 73 75 77 78 80 80 79 83 86 83
76 77 76 75 74 73 73 72 73 74 74 75 75 74 75 76 76 76 76 76 76 76 76 76 76 76 75 76 76 76 76 76 75 74 75 76 78 79 80 80 80 80 84
72 73 73 74 74 75 75 73 73 74 74 74 75 75 76 76 76 77 76 76 76 76 76 76 77 76 76 76 76 76 76 76 75 74 74 75 76 78 77 76 79 81 80
72 71 71 72 75 74 74 74 74 73 75 75 75 76 76 77 78 76 76 76 76 76 76 76 77 77 73 74 78 77 75 75 75 74 74 74 76 76 76 78 76 79 79
71 72 72 72 74 73 73 73 73 73 74 73 74 76 75 79 71 69 74 77 76 76 76 76 77 74 73 69 69 69 74 76 75 74 75 74 75 75 77 76 76 75 75
71 73 72 72 72 73 73 73 72 73 74 72 74 75 75 77 67 67 70 78 77 76 76 77 77 80 73 78 71 68 67 67 69 77 75 76 76 78 77 76 76 74 75
71 73 72 72 71 71 72 72 72 74 73 73 73 74 75 76 66 65 68 76 77 77 77 77 76 77 77 77 77 77 77 78 75 75 75 77 78 79 78 78 76 75 76
65 67 71 72 71 72 71 72 71 73 74 74 74 74 74 75 64 64 66 77 77 76 77 77 77 77 70 65 76 76 76 77 72 66 67 67 67 66 70 74 74 72 75
62 64 65 67 69 72 72 72 71 72 74 76 75 75 72 75 64 62 65 78 76 78 77 76 67 75 65 62 73 76 74 76 78 78 77 71 67 72 64 72 77 74 75
62 63 64 65 66 69 72 72 72 72 72 73 74 75 75 73 74 61 60 76 78 77 78 78 78 62 60 58 61 76 75 77 75 76 77 76 76 77 78 76 75 76 74
61 62 63 64 65 67 69 73 72 71 71 72 73 75 76 76 65 60 59 62 71 78 78 79 78 61 58 57 59 62 61 63 75 75 75 75 76 77 79 78 76 76 78
60 60 62 63 65 65 66 68 72 72 71 72 73 74 75 77 77 60 58 58 61 74 80 75 65 59 56 59 57 59 58 69 72 72 74 75 77 78 78 77 77 77 76
58 58 60 61 62 63 65 68 72 74 73 73 74 75 75 76 76 78 70 64 60 65 69 73 69 67 64 68 67 65 69 71 72 73 74 76 77 74 74 76 74 75 74
56 58 58 61 61 62 64 65 70 76 74 74 76 76 75 75 76 70 71 74 73 69 70 74 75 73 73 72 72 73 73 72 70 72 73 73 73 72 72 73 73 74 73
53 56 56 58 59 60 63 65 59 56 54 55 56 69 75 64 59 54 53 54 54 53 67 72 72 73 73 74 74 75 74 71 74 74 74 74 73 72 73 73 73 73 73
51 52 54 54 58 59 61 63 64 65 53 50 50 50 51 64 51 51 50 51 50 54 73 72 73 73 73 74 76 76 75 76 75 75 74 74 73 73 71 71 72 73 73
51 51 52 55 58 58 60 62 64 65 66 72 56 55 50 50 48 50 49 51 60 56 72 73 73 73 73 74 75 75 75 76 76 75 74 74 73 72 71 71 71 72 72
51 53 55 57 58 58 60 62 64 66 67 70 72 57 51 48 49 48 46 71 71 69 68 71 73 74 72 73 73 73 74 74 74 74 74 73 72 72 71 73 72 63 67
50 52 53 55 56 58 59 59 61 63 65 69 71 73 64 59 62 63 61 65 71 72 73 70 68 68 69 69 70 72 72 72 73 73 73 72 72 72 72 72 72 71 69
48 50 53 53 54 55 55 55 57 59 61 62 60 55 48 66 68 67 63 61 62 59 59 57 56 56 57 57 60 62 64 64 63 64 66 66 67 68 70 70 72 72 72
47 49 51 51 51 52 52 52 53 54 56 56 55 54 49 57 55 54 54 54 57 56 56 53 52 52 53 53 53 55 56 56 56 58 61 63 65 66 68 69 70 69 70
47 47 48 47 48 48 49 49 49 50 50 49 49 49 48 47 48 47 46 47 48 49 50 53 50 45 46 48 48 48 50 51 51 54 58 61 63 63 64 65 65 67 69
45 44 45 45 44 44 44 45 45 44 46 45 44 44 44 43 43 42 43 44 44 44 47 45 43 42 43 43 43 42 42 45 51 54 56 56 56 56 58 59 60 59 60
43 42 42 41 42 42 42 42 42 42 43 44 43 42 42 42 41 41 42 42 42 41 41 41 43 42 42 42 42 42 37 36 42 42 53 53 51 53 52 53 54 54 55
42 41 40 40 40 40 40 40 40 41 40 40 41 40 41 40 40 40 40 40 39 39 40 40 40 40 40 40 36 35 33 35 39 37 47 48 48 48 49 48 50 52 54

GFSGL_sfc_temp_087.txt.gz
Temp
83 83 82 82 82 82 83 83 84 85 85 84 85 85 86 85 85 83 83 85 83 83 84 83 84 84 88 88 88 88 87 86 84 89 88 89 86 88 90 91 93 93 95
84 83 82 83 82 82 81 83 84 83 84 85 85 84 85 85 85 83 84 86 84 83 84 83 83 86 83 84 87 83 86 85 84 81 86 88 86 87 87 87 91 96 92
85 82 83 83 82 81 82 82 83 83 84 85 84 83 84 85 85 84 85 85 85 85 85 84 84 84 82 86 84 86 87 86 85 84 85 88 88 90 88 90 88 89 95
86 85 82 82 82 83 83 82 82 82 83 83 84 84 85 85 85 85 85 84 84 86 86 86 86 85 84 83 84 83 84 84 85 84 86 86 88 88 87 87 88 92 90
82 81 82 82 83 82 82 82 82 82 82 83 83 84 85 86 88 85 85 85 83 84 85 86 86 84 77 79 87 85 84 84 86 86 85 87 87 87 85 88 87 89 90
80 80 80 81 81 81 81 81 81 81 81 82 82 83 84 88 76 71 80 86 85 84 84 85 85 78 76 70 69 70 77 82 81 84 86 84 82 84 88 87 87 85 83
79 80 80 79 78 79 80 80 80 80 81 80 81 82 83 84 69 68 70 86 86 85 84 85 86 90 79 86 73 68 68 67 70 82 81 82 82 84 84 82 83 83 84
76 78 79 78 77 78 79 78 78 80 80 80 80 81 82 84 67 65 68 83 85 85 85 85 85 87 86 85 85 85 86 86 83 82 82 84 85 86 84 85 82 81 85
71 71 71 75 77 77 77 78 79 78 80 80 81 81 80 81 65 64 67 84 85 84 85 85 85 85 76 67 83 83 84 85 79 69 69 69 69 67 72 84 84 85 85
65 67 67 69 69 73 76 77 78 78 78 82 81 81 76 81 67 62 67 86 84 86 85 84 69 80 68 63 80 83 81 84 87 87 86 76 69 77 65 77 85 84 85
65 66 67 67 67 68 71 72 74 75 76 77 79 81 81 80 79 61 60 81 86 87 87 88 89 64 61 59 63 83 81 83 81 84 86 88 88 87 88 85 83 85 85
62 69 70 69 71 73 72 73 73 72 72 73 74 78 82 82 67 64 58 61 74 84 85 89 87 62 58 57 61 66 62 65 85 86 86 87 88 88 89 88 85 85 87
59 61 67 70 71 72 70 71 72 71 71 71 73 74 79 85 84 61 58 58 60 78 86 80 68 58 55 59 57 60 59 78 81 83 83 85 88 90 87 85 84 84 83
58 58 61 64 67 69 71 72 70 72 76 72 72 74 76 80 84 85 79 73 61 67 73 80 75 71 68 75 75 68 76 82 83 83 84 87 89 87 86 87 86 87 85
61 59 61 64 64 65 69 66 71 72 69 73 76 78 79 81 85 75 77 80 81 76 74 82 82 81 80 80 80 81 82 83 81 82 83 84 85 86 85 86 85 84 82
61 62 58 60 65 63 65 64 56 55 54 51 50 62 82 69 58 54 55 54 54 55 71 81 78 77 77 77 77 77 77 74 80 84 84 85 84 85 85 85 83 82 82
60 61 63 61 63 60 62 61 62 63 54 52 49 48 52 61 52 51 50 51 52 56 75 78 78 78 77 76 76 78 77 79 79 83 84 84 85 84 82 83 81 76 75
59 54 60 63 65 62 61 61 63 61 62 64 61 53 51 52 52 49 50 53 62 57 73 74 73 78 78 77 78 77 77 77 78 79 80 83 84 83 79 76 76 75 73
59 60 61 63 63 60 61 61 63 61 61 64 67 65 56 51 48 50 47 70 75 73 70 72 76 77 80 81 81 75 74 75 76 76 78 79 79 77 75 76 77 64 67
58 55 54 59 60 60 60 59 59 60 60 61 63 69 65 59 64 64 62 66 74 78 77 73 73 73 75 75 75 77 75 73 74 76 77 77 78 76 75 75 75 74 73
56 54 53 54 56 58 57 56 57 56 57 58 60 57 47 56 67 69 68 67 67 68 65 67 64 61 59 59 60 61 64 65 65 66 69 70 69 70 70 71 72 73 74
53 51 53 54 54 54 54 54 54 54 54 55 56 55 46 59 58 57 58 58 59 60 59 58 56 56 58 59 59 60 60 59 58 59 62 64 66 67 67 67 68 69 70
51 50 50 51 52 50 50 51 50 50 51 50 49 49 49 50 50 49 49 49 47 49 49 51 52 51 50 50 52 52 54 54 54 56 59 62 62 63 65 65 65 67 73
48 46 46 47 47 47 46 47 46 45 47 46 45 45 45 45 45 44 44 44 44 45 44 45 47 48 49 49 47 47 47 49 55 57 60 61 58 58 59 59 57 57 56
44 44 43 43 44 44 44 44 43 43 43 44 43 42 42 42 42 43 43 44 42 42 42 42 42 42 44 45 46 46 38 37 47 45 55 56 55 55 57 56 54 54 54
42 42 41 42 42 41 41 41 41 41 41 41 41 41 41 40 40 40 40 40 40 39 40 40 40 40 40 39 38 35 33 36 42 37 51 51 51 52 51 51 51 50 50

GFSGL_sfc_temp_093.txt.gz
Temp
91 91 90 90 91 90 90 90 90 91 91 90 80 92 91 91 90 88 87 91 88 88 89 90 89 89 92 96 97 96 94 94 89 93 96 97 93 93 94 94 95 95 100
93 91 91 91 91 91 89 91 91 89 90 90 91 90 90 91 90 88 88 91 89 87 88 88 89 92 87 88 91 89 91 90 89 84 88 92 91 95 93 92 96 100 100
95 94 92 91 90 90 90 90 91 90 89 90 90 90 89 90 91 91 91 90 91 90 90 89 89 89 87 90 90 91 93 92 91 89 89 94 95 97 94 93 94 94 100
92 96 92 90 91 91 91 91 90 90 89 89 89 89 90 90 91 92 92 90 91 92 92 92 91 91 89 88 88 87 89 88 89 90 90 91 94 95 96 93 94 98 98
79 85 88 92 91 91 90 90 90 90 90 89 89 89 90 91 94 91 91 91 90 90 92 93 93 90 81 83 91 88 87 88 90 91 91 93 93 92 89 93 92 95 94
75 77 83 81 86 88 89 89 89 89 89 89 88 88 89 93 80 74 85 91 91 90 89 91 91 84 82 75 73 74 77 83 84 86 88 87 85 88 93 91 90 88 86
73 70 70 81 80 81 84 84 85 86 88 87 88 88 88 89 73 70 74 91 91 91 90 90 92 97 84 91 75 72 72 69 70 82 82 84 83 86 86 85 85 86 85
71 70 70 70 74 77 80 80 81 83 84 85 86 87 88 89 72 68 70 89 89 89 90 90 89 90 91 89 90 89 87 87 85 85 83 84 86 87 86 87 85 85 88
71 71 69 71 72 71 75 77 78 80 82 83 84 84 86 87 68 67 70 89 89 87 89 90 90 90 80 72 88 88 88 90 84 73 75 75 74 72 75 88 87 87 87
75 73 71 73 71 73 73 72 76 79 83 86 85 85 79 86 71 64 69 89 87 90 88 87 75 82 72 67 86 87 85 87 90 91 90 80 73 80 69 79 86 84 86
77 77 75 73 71 73 73 75 77 78 78 78 81 84 87 84 85 62 61 85 88 91 92 93 94 70 67 64 64 87 84 87 85 88 91 92 92 93 92 88 85 86 86
75 75 75 76 77 78 75 77 76 79 78 78 77 76 79 84 70 68 60 61 76 85 88 95 94 67 63 63 66 72 67 68 89 90 91 92 93 95 97 96 89 88 92
71 72 73 74 75 75 74 75 78 78 80 82 83 80 77 85 78 66 62 59 60 76 87 83 63 59 57 60 60 64 63 82 86 87 87 89 93 96 93 92 92 89 88
69 71 73 73 73 74 78 80 81 82 84 82 82 84 78 75 82 81 80 73 61 68 70 80 78 71 61 70 78 70 79 86 86 87 87 90 93 94 95 96 94 94 93
70 71 74 75 73 76 76 78 78 78 76 77 78 78 78 74 73 59 60 66 68 69 67 82 84 84 84 86 89 90 89 87 84 86 87 89 91 93 93 96 94 94 91
68 72 74 76 76 75 76 77 64 58 55 51 48 59 76 62 53 50 48 49 50 50 67 72 80 86 87 88 88 89 91 85 90 89 88 88 89 91 92 93 94 92 90
62 63 70 70 75 76 71 71 73 75 56 53 48 47 47 51 47 46 46 46 46 49 67 76 79 81 82 84 90 92 92 92 88 91 91 91 91 91 89 91 91 91 91
61 56 63 68 71 73 74 75 73 73 75 78 61 56 48 46 45 46 46 46 63 58 69 80 78 76 77 79 85 86 85 91 89 86 85 87 88 89 89 90 91 90 90
59 59 63 67 71 72 74 74 75 74 71 76 80 68 62 47 48 47 46 67 70 72 69 70 75 75 76 78 79 82 85 81 80 79 81 82 84 83 85 90 91 73 75
56 57 59 63 66 69 71 71 72 74 76 76 77 78 81 73 71 72 72 69 66 69 71 71 70 73 74 77 77 78 78 80 78 77 76 77 78 79 81 82 83 84 83
55 56 57 60 62 66 69 70 71 72 74 76 76 74 45 70 69 69 64 64 62 61 64 66 67 66 71 74 74 75 76 75 74 75 76 76 76 74 75 76 76 76 76
54 54 55 55 57 57 61 66 69 71 72 74 75 71 48 66 65 61 59 58 57 56 54 56 60 59 57 59 62 64 65 67 66 66 66 67 67 68 69 69 69 69 70
51 50 50 51 53 53 56 57 60 63 66 69 64 63 64 62 58 56 54 52 51 49 51 53 53 54 54 55 56 56 60 63 63 63 63 64 65 67 67 68 68 68 67
51 49 48 48 49 49 49 50 51 50 54 57 54 56 57 57 53 51 49 48 47 47 47 47 48 49 51 52 52 51 51 53 58 61 63 64 65 62 67 67 66 64 65
45 43 43 44 44 44 44 46 48 49 50 51 51 50 50 49 47 46 46 45 44 43 42 44 44 43 44 44 45 47 41 38 53 49 62 63 63 63 62 63 62 62 62
42 41 40 41 41 42 42 43 43 45 46 46 46 45 45 44 43 42 42 41 40 40 40 41 41 42 42 41 40 39 36 39 47 43 57 57 58 58 59 60 62 61 61

GFSGL_sfc_temp_096.txt.gz
Temp
86 85 85 85 86 85 86 87 86 84 80 77 76 80 83 83 84 83 82 82 81 81 83 82 82 83 82 83 82 82 82 81 78 80 82 85 84 84 86 86 86 85 87
88 87 86 86 86 86 85 87 86 85 84 80 79 81 81 85 83 83 83 85 81 81 83 82 82 87 82 82 82 81 81 82 80 76 79 80 81 82 85 84 88 94 87
84 89 85 86 86 85 85 86 87 85 85 86 85 84 84 84 84 84 83 84 84 83 83 83 83 83 82 82 81 81 81 83 81 79 78 81 82 83 83 84 84 84 90
73 74 83 83 85 87 86 85 86 86 84 84 84 84 85 85 85 84 83 83 84 85 84 84 84 83 82 81 82 81 82 80 80 79 78 80 80 83 82 81 80 81 82
73 72 73 72 82 84 84 85 86 86 86 85 84 85 85 86 89 85 85 83 83 84 85 85 86 85 81 81 84 81 80 80 79 80 79 79 80 80 78 80 78 79 80
72 70 72 74 73 82 84 84 84 85 85 84 84 84 84 89 80 74 81 85 84 83 83 84 85 82 79 75 74 74 77 79 77 78 77 75 76 78 79 77 77 75 74
72 71 70 73 73 72 78 81 83 82 82 82 84 84 83 84 74 70 73 86 85 83 82 83 86 92 80 84 73 72 72 70 72 77 75 76 76 78 79 78 77 77 77
72 71 70 69 71 72 72 74 76 78 79 79 81 81 83 85 72 70 69 80 83 83 84 84 83 83 84 83 83 81 80 81 78 77 76 78 78 80 80 80 78 78 80
73 71 70 70 67 70 72 72 72 74 76 78 79 80 81 81 68 67 69 82 83 82 84 84 84 84 77 73 81 81 82 83 79 72 73 73 73 72 75 78 78 76 76
73 74 73 73 71 69 69 70 73 75 75 75 77 81 77 81 69 64 67 76 81 83 82 82 72 79 72 66 79 81 79 82 84 84 80 74 71 74 69 76 80 77 77
72 74 74 74 73 73 72 74 74 71 73 76 75 77 79 79 81 62 61 79 83 83 84 85 86 69 65 64 63 81 80 82 80 81 84 84 84 83 82 78 78 80 78
71 70 72 72 74 75 72 72 72 73 73 75 74 74 75 77 69 66 59 60 72 78 81 85 84 64 59 61 65 69 67 68 83 83 83 82 83 83 84 84 83 81 83
67 69 69 71 72 72 71 70 73 74 74 74 74 73 74 76 76 63 61 60 60 67 79 75 65 63 59 60 59 61 60 76 80 80 80 81 83 85 83 81 81 82 81
65 67 69 69 71 71 73 75 75 75 76 76 74 72 71 69 72 67 69 70 64 65 65 71 70 68 63 67 69 73 69 76 78 79 80 82 83 83 83 84 83 85 80
63 65 67 71 71 73 72 74 74 74 72 73 73 74 73 71 72 58 57 63 63 61 58 67 71 74 76 78 79 80 82 77 76 80 81 81 81 82 82 84 84 83 80
59 63 65 66 69 72 74 73 65 57 56 53 52 58 73 62 56 49 46 47 50 51 58 65 68 71 74 77 80 80 81 80 82 81 80 80 80 80 81 83 83 82 81
58 59 62 62 64 65 67 69 70 70 60 53 50 50 49 56 50 45 45 45 46 49 59 65 71 75 75 77 79 78 79 83 83 84 80 77 81 80 79 81 81 81 81
57 55 60 62 64 65 67 68 70 69 70 72 65 54 51 44 44 44 45 48 67 57 63 69 72 76 76 77 77 75 76 77 77 73 72 73 73 76 76 76 81 81 81
59 59 58 58 59 61 63 65 68 69 69 70 73 68 66 45 44 45 45 67 69 70 72 71 72 73 74 74 74 74 75 76 74 76 76 76 76 77 76 76 76 63 71
59 58 57 58 58 57 60 63 64 65 67 69 71 73 75 60 66 70 70 70 69 67 68 68 67 68 70 72 74 74 74 72 73 73 74 75 75 74 74 74 74 74 74
56 57 56 57 57 57 56 57 59 60 58 66 69 71 46 70 71 71 70 69 65 63 60 59 58 60 62 63 64 69 71 70 69 68 69 68 68 65 65 64 65 68 72
55 55 54 54 53 53 54 55 55 55 58 60 62 67 46 64 70 68 65 60 58 57 56 54 54 56 57 56 57 59 62 65 67 67 66 66 67 67 66 66 65 66 67
53 51 50 50 49 50 50 51 53 53 53 54 58 60 60 60 62 61 57 56 54 52 51 51 51 52 54 54 54 54 54 57 58 60 62 65 66 66 66 66 66 67 67
51 47 45 45 44 44 45 47 48 47 49 51 53 56 57 56 58 56 54 53 50 49 48 47 47 47 47 47 49 50 51 50 51 56 60 61 64 61 65 65 63 64 63
49 47 43 42 40 40 41 43 44 44 45 46 47 50 51 51 51 51 49 47 45 44 44 43 43 44 43 43 43 44 41 37 47 46 59 61 62 62 61 60 60 61 61
45 45 42 40 39 39 38 39 40 42 42 44 45 46 47 47 46 45 44 43 42 41 41 41 41 42 42 41 40 36 33 35 45 39 55 57 56 56 57 58 59 58 58

GFSGL_sfc_temp_102.txt.gz
Temp
74 73 75 75 75 74 73 74 75 74 74 74 73 74 74 74 75 73 72 73 73 72 73 73 73 74 73 73 73 72 72 71 68 71 73 76 77 76 78 78 78 79 80
72 73 72 73 75 74 74 75 74 74 73 73 73 73 73 74 74 73 74 76 74 73 73 72 73 78 74 73 73 73 72 71 71 69 70 73 73 75 76 76 80 84 80
71 70 70 70 72 72 74 75 74 73 73 73 73 72 73 74 74 74 74 74 74 75 75 73 74 73 72 72 72 72 72 74 72 70 70 71 72 74 76 76 76 77 81
71 70 69 69 71 70 72 72 73 75 74 73 73 73 73 74 75 75 76 75 75 75 75 75 75 74 73 73 73 72 72 71 70 70 69 69 70 73 73 72 73 72 74
69 69 69 71 71 69 70 71 73 74 75 74 75 74 74 76 79 75 75 74 73 74 75 75 76 77 74 74 76 74 72 71 70 69 69 69 70 69 70 71 69 69 70
67 68 71 71 70 69 69 70 71 73 74 74 73 76 75 79 74 71 74 74 74 74 74 74 76 75 75 72 71 72 75 72 71 69 69 68 69 68 69 69 68 67 66
68 66 67 69 69 70 70 70 70 70 70 71 73 73 73 75 70 69 69 75 75 75 74 76 77 83 75 77 73 69 69 69 71 73 70 69 68 70 69 67 67 68 68
64 65 66 67 68 68 68 69 70 70 70 71 71 71 72 74 68 66 68 71 73 73 75 75 76 78 76 75 75 75 75 75 72 73 74 77 73 77 72 75 70 70 70
61 62 63 64 65 67 67 67 68 69 69 70 72 71 70 71 65 63 65 69 71 73 76 75 75 75 71 67 73 73 73 75 74 67 69 69 69 69 71 70 71 68 71
58 59 60 62 62 62 63 65 67 68 68 69 69 72 70 72 64 61 63 70 69 71 72 75 67 74 67 64 72 73 73 77 75 74 73 68 67 70 66 71 75 69 70
57 59 59 60 60 62 61 61 61 61 63 65 67 70 70 68 69 60 60 68 71 71 72 75 75 64 58 58 59 74 75 74 73 72 73 75 74 73 74 72 72 74 72
54 55 57 58 61 63 60 60 60 60 61 63 64 64 67 68 59 57 57 58 61 68 70 71 68 57 54 55 59 60 59 61 68 71 72 75 77 79 79 77 75 75 78
51 51 53 56 58 59 59 60 60 59 59 59 60 58 59 64 67 59 58 58 58 65 67 64 60 56 57 62 61 58 58 64 65 66 70 73 77 80 81 79 75 75 76
49 50 52 52 54 55 58 60 59 59 60 61 60 58 57 57 59 62 65 64 62 63 63 64 62 59 57 60 63 67 66 67 68 70 72 74 72 72 78 80 77 78 76
48 48 48 50 49 52 54 54 57 57 52 54 58 57 59 62 63 57 56 59 60 57 56 59 62 64 64 65 66 68 70 71 70 70 71 73 74 75 76 78 77 76 74
45 46 46 46 48 51 51 53 53 52 52 49 48 48 59 54 51 49 46 43 45 47 57 59 58 59 61 63 64 66 69 68 70 71 70 71 71 70 73 71 70 69 69
43 44 45 46 46 46 47 46 48 53 52 51 49 48 49 46 47 46 44 42 45 47 56 55 56 57 59 61 62 65 67 69 71 71 71 72 71 70 69 69 70 70 70
44 49 43 44 44 45 46 46 47 47 48 52 53 50 50 47 46 47 42 44 51 49 55 56 57 59 62 62 61 60 61 63 64 66 68 71 71 70 70 70 70 70 69
44 44 44 43 44 46 45 45 46 47 48 48 51 51 51 48 48 48 43 49 53 57 57 57 58 57 55 57 57 57 58 59 59 61 64 68 69 70 70 70 69 60 62
43 51 49 42 42 42 43 43 44 45 45 46 47 48 50 51 51 52 55 56 57 58 56 55 53 52 52 52 53 54 55 56 56 57 59 62 66 68 68 68 67 66 66
42 41 48 41 40 40 41 41 41 41 42 43 45 48 46 46 48 49 52 54 56 55 54 52 49 49 49 52 52 52 53 54 55 55 56 58 62 63 67 69 69 68 66
40 39 39 37 39 39 38 39 39 39 40 41 42 44 44 46 46 46 48 51 55 54 53 52 50 50 48 49 50 50 50 50 52 53 54 55 56 58 61 66 66 65 65
40 39 38 37 37 41 38 38 41 41 41 41 41 41 44 45 46 46 47 49 51 52 49 49 48 47 46 46 49 48 47 47 49 50 50 51 52 54 58 61 65 65 64
39 38 37 36 36 37 41 40 40 40 39 40 40 40 41 42 43 45 46 47 47 49 48 46 46 46 45 45 46 46 46 46 46 47 47 46 47 49 54 58 61 64 65
38 37 36 36 35 35 36 36 37 37 37 38 38 38 39 39 40 42 44 45 46 47 46 45 43 43 42 42 40 41 40 38 38 38 39 41 44 48 52 56 59 62 64
38 38 36 35 34 33 36 36 34 34 36 36 36 36 36 36 37 39 40 42 43 43 43 43 43 42 42 41 40 38 34 33 36 34 37 40 45 49 54 57 59 60 61

GFSGL_sfc_temp_105.txt.gz
Temp
72 72 72 72 73 72 71 71 73 73 72 72 72 72 73 73 73 72 72 72 71 71 71 71 72 72 71 72 72 70 70 69 68 70 70 74 74 75 77 76 77 77 78
70 71 71 71 71 71 71 72 74 72 72 72 72 71 72 73 73 72 72 74 72 72 72 71 71 75 71 71 71 70 71 70 69 68 69 71 72 74 74 75 78 81 77
70 69 68 69 70 70 71 72 72 72 71 72 72 71 71 73 73 73 73 73 72 73 73 72 72 71 70 70 70 70 70 72 70 69 68 69 70 71 72 74 75 74 78
69 68 68 69 69 68 69 70 72 72 71 71 72 72 72 72 73 73 73 73 73 74 74 73 72 72 71 71 71 70 70 70 69 68 68 68 68 71 70 70 71 70 72
68 68 68 68 70 70 70 68 70 71 72 72 72 72 72 73 76 73 73 73 73 73 74 74 74 74 73 72 74 72 71 70 69 68 68 67 68 68 68 68 68 67 68
68 68 69 70 69 69 69 68 69 70 70 72 73 73 72 77 72 70 73 73 73 72 73 73 74 74 74 70 69 70 72 71 70 68 68 68 68 68 68 68 66 65 65
65 65 65 69 69 69 70 68 68 70 70 70 70 71 72 73 68 67 69 74 74 74 72 73 74 80 73 75 72 69 68 67 70 72 69 69 68 70 68 67 66 66 65
61 62 63 65 66 67 67 68 68 69 68 70 70 70 71 72 65 63 66 70 71 72 74 74 74 75 74 74 73 73 74 74 72 70 72 75 73 76 71 72 70 68 68
59 61 61 62 63 64 65 66 65 65 67 68 69 69 70 71 64 61 63 69 69 71 72 73 74 75 70 66 70 72 74 74 72 66 67 68 68 67 69 68 69 66 70
55 57 60 62 62 63 62 63 64 63 63 65 67 69 67 69 63 59 61 68 68 70 70 70 66 72 66 62 69 72 71 74 72 73 72 70 66 68 65 69 72 68 70
53 55 56 58 60 60 59 60 60 62 61 64 65 66 67 64 66 58 58 67 68 69 69 70 70 60 58 58 58 68 70 68 68 68 70 72 73 71 72 69 70 72 71
51 52 53 54 58 59 58 60 60 59 60 60 57 58 60 63 60 59 56 58 61 66 67 69 69 59 56 56 59 61 60 60 64 66 67 70 71 73 75 74 73 72 76
49 48 49 52 54 54 54 55 58 58 58 58 58 54 56 58 58 57 58 58 59 63 64 61 56 56 57 60 60 60 60 65 65 65 67 70 73 76 77 74 74 74 74
46 46 47 47 49 51 53 54 53 53 53 54 55 54 55 55 56 55 55 56 59 60 61 61 59 58 57 59 62 66 67 66 66 66 67 70 71 71 72 75 74 75 70
45 45 44 45 45 47 48 49 51 50 49 48 50 50 51 53 54 48 46 48 48 49 51 57 58 58 59 59 61 63 65 67 67 68 68 68 70 71 72 73 72 73 70
43 43 43 43 43 45 44 46 50 50 49 47 45 46 53 51 46 45 43 43 42 45 54 55 56 56 57 58 59 61 62 64 66 67 68 70 70 70 70 70 68 68 68
41 42 41 43 43 43 43 44 43 47 49 47 46 46 45 44 45 45 42 43 43 45 51 52 54 55 56 58 63 63 60 59 61 62 62 64 66 68 69 70 70 69 68
41 48 40 41 41 41 41 42 43 43 43 45 48 47 46 45 44 44 41 44 53 52 50 52 54 56 59 60 58 56 56 55 56 56 58 61 62 64 66 68 69 69 70
41 41 40 40 40 42 40 40 41 41 41 42 44 45 46 45 44 44 45 49 51 55 58 57 57 56 56 54 52 52 52 53 54 56 55 56 58 59 60 64 67 60 62
41 50 45 38 38 38 38 39 39 39 39 40 40 41 44 43 43 44 46 47 48 51 55 55 55 54 53 52 51 51 52 53 53 54 54 54 55 56 58 60 61 63 66
39 39 46 38 37 37 37 36 37 37 37 38 39 42 42 40 40 42 43 44 45 46 47 51 53 52 51 51 51 50 49 50 52 52 52 53 54 54 56 56 57 59 63
38 38 38 36 37 36 36 36 36 37 38 40 40 42 42 40 40 41 42 44 47 47 47 47 50 52 51 50 50 49 49 48 48 50 50 51 51 52 52 53 55 57 59
38 38 37 36 36 39 35 36 36 36 37 38 38 39 40 38 39 41 40 41 43 45 46 46 47 48 49 48 46 47 47 47 48 49 48 48 48 49 50 50 52 53 55
38 38 37 36 35 35 34 33 34 37 36 36 38 39 39 39 38 39 40 40 41 43 45 45 46 47 47 46 46 45 46 47 47 46 46 46 45 45 46 47 49 52 54
37 37 36 35 34 33 33 32 33 33 37 38 38 38 38 38 37 37 38 38 38 39 41 42 45 45 45 45 45 45 43 38 40 40 42 40 40 42 43 44 47 49 51
37 37 36 35 33 32 31 31 31 36 37 38 38 37 36 36 36 36 37 37 38 38 40 41 41 42 43 43 42 40 36 34 36 35 37 38 39 41 43 45 47 50 52

GFSGL_sfc_temp_108.txt.gz
Temp
72 73 73 74 72 71 72 72 72 72 73 73 74 74 74 74 75 74 74 75 75 75 75 75 75 76 77 77 77 76 76 76 75 77 77 80 80 80 82 82 83 84 84
70 71 72 73 73 73 73 73 73 73 74 72 73 73 73 75 76 75 75 76 75 75 75 74 75 78 75 75 77 76 76 76 76 73 75 77 78 79 79 79 83 87 83
70 69 70 70 71 71 72 73 74 74 74 74 73 73 73 74 75 75 75 76 75 76 76 75 76 75 75 75 75 75 75 76 75 74 75 76 77 78 79 79 80 80 84
70 69 69 70 70 70 70 71 71 73 74 73 73 73 74 74 75 76 76 75 75 76 76 76 76 75 75 76 75 75 75 75 74 74 74 75 76 78 77 76 78 79 79
69 69 69 70 71 71 70 70 71 72 73 74 74 74 74 75 77 75 76 76 75 76 76 77 78 76 73 73 76 75 74 74 75 74 74 74 76 76 76 77 75 76 78
68 66 68 71 70 70 71 70 70 71 72 73 73 74 74 77 71 68 73 76 76 76 76 76 77 74 74 69 68 69 72 75 75 74 75 74 75 75 75 75 74 74 75
64 64 64 67 69 70 71 70 70 71 71 72 72 73 73 74 65 65 67 75 76 76 75 76 77 81 75 79 72 68 68 67 69 77 75 76 75 77 76 75 73 73 74
61 62 62 64 65 65 66 66 67 68 69 69 70 71 72 72 62 61 64 71 73 75 75 76 76 77 77 77 77 77 78 79 76 75 75 77 78 79 77 79 76 74 75
59 60 61 62 62 63 64 64 62 64 66 67 69 69 70 69 59 60 63 71 72 73 74 74 74 75 69 64 74 75 76 77 74 65 67 67 67 66 69 76 75 72 75
56 58 59 61 61 61 62 62 62 63 63 66 67 68 64 68 60 58 63 70 69 70 72 73 66 65 58 58 68 73 73 76 78 79 79 73 67 72 65 72 77 74 76
56 57 57 57 58 58 60 61 61 61 61 60 61 61 62 61 60 56 56 66 65 67 68 68 70 61 59 59 59 65 69 67 70 73 74 76 77 78 79 74 75 76 76
53 53 54 54 57 58 57 58 58 58 58 58 57 60 61 60 56 55 54 55 59 64 65 67 66 56 57 57 60 60 60 61 66 69 72 73 74 76 78 79 78 77 79
50 50 51 52 53 54 54 55 56 55 56 57 58 57 58 58 58 54 54 54 57 59 62 60 55 53 54 59 60 60 58 65 67 67 68 69 71 75 77 77 77 78 77
48 48 49 50 50 51 53 54 53 53 53 54 55 54 55 56 55 55 55 55 55 56 55 58 59 57 55 57 62 65 68 68 68 68 69 71 72 75 75 76 75 76 76
47 48 48 48 48 49 50 50 53 53 51 52 51 53 52 52 51 47 46 48 48 48 49 57 60 61 61 63 64 66 68 69 68 67 68 68 70 72 72 75 75 74 71
46 47 47 47 47 47 47 48 48 48 46 45 45 47 52 48 45 44 43 41 42 44 55 56 57 58 60 62 64 66 69 63 62 64 64 64 64 65 68 70 70 69 69
45 45 45 46 46 46 46 45 45 47 47 45 44 45 44 43 43 42 42 41 44 49 54 55 56 58 60 61 64 64 62 60 60 61 59 60 62 63 61 64 67 68 68
46 46 44 44 45 44 44 44 45 44 43 44 45 44 43 42 42 42 43 46 51 53 56 57 57 58 59 58 58 55 56 57 57 58 58 58 59 60 60 61 62 63 66
46 45 44 44 44 44 43 43 43 43 42 42 44 44 44 42 41 42 43 48 47 49 51 52 54 57 57 55 55 54 54 55 55 56 55 55 56 57 58 60 61 55 55
47 48 44 43 43 43 42 42 42 42 42 42 42 42 44 44 42 44 46 46 47 48 48 48 50 49 50 54 56 55 54 54 54 55 56 55 55 56 54 55 58 58 59
45 47 46 43 43 42 42 41 41 41 41 41 42 43 41 42 41 42 43 44 44 45 46 47 48 49 50 50 51 53 54 53 53 53 55 54 53 52 55 56 55 55 56
44 44 44 43 42 42 42 42 41 41 41 40 41 42 40 42 41 41 41 42 43 43 44 45 45 47 48 47 47 49 49 49 50 51 51 51 51 51 51 51 54 55 54
44 44 43 42 42 42 41 41 41 40 40 40 41 41 41 41 40 40 40 41 41 42 43 43 43 44 46 47 49 49 47 46 48 49 48 48 48 48 48 48 49 50 51
44 44 43 42 42 41 41 40 40 39 39 40 41 42 41 40 40 40 40 40 40 40 41 40 40 42 44 44 45 45 46 47 47 47 47 45 44 44 45 45 46 48 49
44 43 43 42 41 41 40 40 39 39 40 41 41 41 41 40 39 39 39 39 39 39 39 39 40 41 41 42 42 44 43 38 41 41 43 43 42 42 42 42 42 44 45
43 43 42 41 40 40 40 39 39 39 40 42 41 40 40 39 39 39 38 37 37 37 38 39 39 39 40 40 41 39 36 35 37 35 38 39 38 39 40 41 42 43 44

GFSGL_sfc_temp_111.txt.gz
Temp
82 82 80 82 81 81 82 81 80 80 82 82 82 83 83 84 82 82 82 83 82 83 84 83 83 84 88 89 89 88 87 87 84 89 89 90 87 88 90 91 93 93 95
82 81 80 81 81 80 81 82 82 79 81 82 81 81 82 82 83 81 82 84 82 82 83 83 83 86 83 84 87 84 86 85 85 81 86 88 86 87 87 87 91 96 93
78 79 79 79 80 80 81 81 82 82 82 81 82 81 81 82 82 83 82 83 83 84 84 83 84 83 82 85 84 85 87 86 85 84 84 87 87 89 88 89 88 88 94
74 75 76 77 78 79 79 80 81 82 82 82 82 83 83 80 82 84 83 82 83 84 84 84 84 84 83 83 83 82 83 83 84 83 85 86 87 88 87 86 87 92 90
75 75 76 77 77 77 77 78 78 80 82 82 82 83 83 84 85 82 83 83 82 83 83 84 85 82 75 77 86 82 83 81 81 83 83 86 87 87 86 88 86 89 90
73 71 71 75 75 76 76 77 77 78 79 80 81 82 82 86 69 69 74 83 83 83 82 84 86 75 77 70 69 70 76 81 81 84 86 84 82 85 88 87 86 85 83
67 71 70 67 73 75 76 76 76 77 77 78 78 80 80 80 62 64 67 80 82 83 83 83 85 89 80 85 74 68 68 67 69 81 81 82 82 84 83 82 83 83 83
64 69 69 66 66 69 72 72 73 74 75 75 76 78 73 67 60 60 64 81 82 82 82 83 82 83 82 79 82 84 85 86 84 84 83 84 83 85 83 84 82 80 84
63 67 68 69 67 68 69 67 69 71 72 75 73 72 72 67 57 58 68 77 80 80 81 81 80 79 60 60 76 78 81 83 81 68 68 68 67 67 71 84 84 84 84
65 66 66 66 67 66 67 68 69 69 69 70 71 69 62 64 55 56 67 76 71 71 71 71 63 66 59 58 70 70 71 78 78 82 83 78 71 77 65 77 85 81 82
64 65 65 66 65 65 63 65 67 68 68 69 68 67 65 60 60 54 55 67 69 73 70 71 75 58 56 56 56 69 68 66 69 74 78 80 84 85 86 82 82 80 80
63 64 63 63 65 65 64 63 63 64 64 65 67 69 69 66 55 55 53 54 58 70 69 71 72 54 52 53 58 59 57 59 69 73 73 72 75 74 77 83 83 83 85
61 60 60 61 62 62 62 61 64 62 64 62 66 67 67 66 65 55 54 55 57 67 69 63 55 54 54 61 57 56 56 69 68 72 72 73 74 76 76 78 83 83 82
58 58 60 60 60 62 64 64 63 62 62 60 59 58 60 61 60 60 60 63 60 65 63 69 63 60 57 61 68 73 78 77 75 72 72 76 78 78 74 76 74 75 79
58 58 59 60 60 60 59 60 61 57 56 60 58 58 59 55 51 47 47 53 54 55 51 70 70 70 71 73 74 76 77 78 75 74 75 75 76 76 76 79 79 78 74
58 59 59 60 60 60 60 58 47 47 45 43 43 49 57 46 43 42 42 42 42 45 62 64 66 67 68 69 69 71 73 69 69 70 71 71 71 72 73 74 76 75 74
57 57 57 58 59 58 59 59 58 52 46 44 43 42 42 41 41 41 41 42 46 50 62 63 63 62 62 65 64 63 64 65 64 67 68 69 69 70 70 72 73 73 73
57 50 58 58 57 57 57 57 58 57 57 56 46 45 42 41 41 41 42 48 59 59 60 59 60 61 59 59 63 64 64 63 62 63 66 66 62 64 66 68 70 70 71
57 57 57 57 57 55 57 57 57 56 55 55 57 51 49 43 42 43 45 56 56 57 57 57 58 58 58 58 58 56 57 59 61 62 63 65 66 63 61 64 65 57 59
57 52 55 56 56 56 57 57 56 55 54 54 54 53 53 53 54 53 54 53 54 54 54 54 55 56 56 56 56 55 56 55 55 57 58 60 62 64 62 60 60 62 63
59 56 53 56 56 56 55 55 55 55 54 53 53 48 40 51 51 51 51 51 51 51 51 51 51 52 53 54 55 55 56 56 52 52 52 53 54 53 54 55 54 55 58
59 58 58 57 56 55 54 54 54 55 54 53 53 51 42 53 52 51 50 50 50 49 50 47 45 47 49 49 50 50 49 51 54 53 52 51 52 53 53 52 51 52 52
59 58 56 56 56 49 53 55 54 54 53 53 53 53 53 51 49 49 48 48 46 45 46 44 43 43 44 44 46 46 46 45 44 46 46 48 50 51 53 51 50 49 49
59 58 57 56 55 56 55 54 53 46 52 54 53 52 52 51 49 45 44 45 45 44 44 43 43 44 44 44 44 44 45 46 46 45 45 44 45 47 49 47 47 46 46
60 58 58 57 55 56 53 54 54 54 54 54 53 53 52 52 51 49 47 43 43 43 42 41 41 42 42 42 42 43 41 36 40 38 41 41 41 42 42 42 43 44 44
60 59 58 57 56 55 55 54 54 54 55 55 54 53 52 50 49 48 45 42 40 40 40 40 40 40 40 40 41 38 34 33 36 34 37 37 37 38 40 40 40 41 42

GFSGL_sfc_temp_114.txt.gz
Temp
89 87 88 88 88 87 87 87 87 86 87 87 87 88 88 88 89 87 87 89 87 88 89 88 88 89 92 95 95 95 94 94 89 94 97 98 91 92 93 94 97 97 100
89 88 86 87 88 88 88 89 88 87 87 87 88 87 88 88 88 87 87 90 87 87 88 88 87 92 87 88 92 89 91 90 89 84 90 93 92 92 92 91 96 101 98
87 88 86 87 87 87 87 88 89 88 88 88 88 87 87 87 86 88 88 88 89 89 89 88 88 89 87 89 89 89 92 92 91 90 89 94 95 95 93 94 93 94 101
85 85 84 84 86 88 88 87 87 87 88 88 88 89 89 88 88 88 89 88 88 89 89 89 89 89 87 87 87 86 87 87 89 89 90 92 94 95 94 93 94 97 97
80 81 82 83 83 85 85 86 87 87 88 89 88 89 90 90 92 89 89 88 87 88 89 89 90 86 78 80 90 89 86 87 90 90 90 91 92 92 89 93 92 95 94
73 73 77 79 78 80 82 83 83 85 86 86 87 88 88 93 68 71 78 89 88 87 87 88 89 82 80 71 70 70 75 83 82 86 89 88 86 89 93 92 90 89 87
73 75 76 77 76 78 79 82 82 82 83 82 84 85 83 80 60 62 68 87 89 88 87 87 90 96 85 90 74 69 69 67 69 81 81 83 83 86 86 85 86 87 87
71 74 76 75 69 68 72 77 79 81 81 82 83 78 76 72 58 59 64 84 87 88 88 87 86 86 75 78 87 87 89 90 86 85 85 86 87 89 87 86 84 84 88
66 71 75 74 67 66 69 73 75 78 79 76 73 73 74 68 56 57 66 82 82 78 76 73 78 74 62 61 79 83 85 87 84 71 69 68 67 68 72 85 86 88 88
68 73 75 76 75 75 73 73 72 73 73 74 71 68 63 68 55 56 63 84 79 79 73 71 63 69 58 57 76 79 80 83 83 83 85 82 74 79 67 79 86 85 86
68 71 72 74 74 74 73 74 74 74 74 74 72 71 68 66 61 56 56 76 77 82 83 83 81 57 54 53 55 76 74 70 75 80 83 85 83 84 83 81 80 78 76
65 68 68 71 75 74 71 72 72 72 71 72 72 75 74 71 57 56 55 56 59 79 78 80 77 54 52 52 61 57 56 60 81 80 80 81 79 80 84 85 83 84 87
69 68 68 70 71 71 70 70 72 71 74 74 72 74 74 74 73 57 56 57 60 72 74 67 56 55 55 63 55 57 56 81 83 82 82 81 81 85 84 85 84 83 83
66 66 68 68 68 71 75 75 75 76 74 74 71 68 68 65 62 62 64 69 64 69 67 75 69 62 60 67 70 76 83 83 80 81 80 82 85 84 84 86 84 85 85
66 68 68 69 69 67 65 64 67 59 57 71 70 70 68 65 57 47 47 56 59 59 55 76 78 78 78 79 80 80 82 82 79 78 78 79 80 80 81 83 82 82 81
66 68 70 71 71 71 68 62 46 47 44 43 43 51 60 46 43 42 41 42 43 45 63 69 70 71 71 73 74 75 76 73 74 74 75 76 76 76 77 78 80 80 79
67 66 67 67 70 69 69 67 61 51 45 43 42 43 43 41 42 42 42 42 45 53 70 68 67 65 64 65 66 67 69 72 70 73 72 73 74 74 72 74 75 77 76
65 52 69 69 69 69 69 69 72 68 66 61 45 48 44 43 43 42 43 48 68 67 68 67 66 67 67 66 67 68 65 64 66 66 66 70 72 71 72 71 72 72 73
66 68 69 69 69 66 68 68 69 67 67 67 65 50 51 45 44 44 45 65 65 65 65 64 64 64 65 64 64 64 63 64 61 64 64 63 64 65 66 69 71 59 60
66 56 63 67 65 67 67 68 66 65 65 66 65 62 63 63 64 63 63 62 62 63 62 61 61 61 61 60 60 61 62 63 63 64 63 58 57 57 56 57 57 57 60
67 63 60 67 67 68 68 67 67 67 66 65 62 53 39 59 63 62 61 61 60 59 58 58 57 57 57 57 57 56 58 59 59 59 59 57 58 56 56 55 55 56 55
68 66 65 67 66 64 65 66 66 66 66 65 63 56 45 62 63 61 59 59 58 57 58 55 54 54 54 53 52 53 52 51 49 50 51 49 48 50 52 55 56 57 57
69 68 66 66 66 55 61 65 65 65 64 64 65 66 65 64 63 60 57 58 58 57 57 55 52 49 50 49 49 48 47 47 50 49 47 47 47 50 53 53 54 55 55
68 67 66 65 64 64 64 63 62 52 64 63 63 65 65 64 64 61 61 58 55 56 56 54 52 48 48 48 48 49 49 48 46 45 45 44 44 45 49 50 51 52 51
68 67 66 65 63 64 62 63 63 63 63 63 63 64 65 64 62 61 59 57 54 50 48 48 47 46 45 44 44 45 42 35 39 38 38 38 38 39 40 42 43 45 45
65 67 67 67 65 65 63 63 62 62 62 63 63 64 64 63 63 62 59 57 53 52 50 48 46 44 44 44 43 39 35 34 37 34 35 36 36 37 38 38 39 40 41

GFSGL_sfc_temp_117.txt.gz
Temp
91 91 90 91 90 89 89 88 89 89 88 89 89 89 89 89 90 88 87 89 88 88 89 89 89 89 91 94 96 96 95 94 89 93 95 96 91 93 94 95 95 96 98
91 89 89 90 91 90 89 90 90 87 86 88 89 88 89 90 89 88 88 91 89 88 89 89 89 92 88 88 91 89 91 90 89 83 87 92 91 95 94 92 96 101 99
88 90 89 88 89 89 90 90 91 88 87 86 87 87 87 88 89 89 88 89 90 90 90 89 89 90 87 90 88 89 91 92 90 90 88 94 95 96 95 94 94 94 101
80 83 83 87 88 90 90 90 89 90 89 86 88 87 89 89 89 89 89 88 89 90 91 91 90 90 89 88 88 87 88 87 88 89 90 92 94 94 93 91 93 97 97
74 78 82 84 85 86 87 88 89 88 89 89 89 90 90 92 90 89 88 88 89 88 90 90 91 88 79 80 89 88 83 87 89 89 89 91 92 89 88 92 92 93 92
71 74 81 82 83 83 84 84 85 86 88 88 88 89 89 86 63 65 75 91 90 88 88 89 89 83 81 75 72 72 76 81 82 84 86 85 83 87 89 89 87 87 84
73 73 79 78 79 81 81 81 80 81 82 83 84 85 78 73 60 62 67 86 86 88 86 86 90 96 84 90 75 71 71 69 71 82 81 82 82 85 85 83 83 84 84
75 76 75 75 76 77 78 77 78 81 80 81 82 80 75 68 59 59 64 82 83 85 85 85 84 85 71 73 83 85 87 87 79 82 82 82 83 83 84 83 82 82 87
71 75 77 78 76 73 67 67 69 73 72 73 73 73 74 68 57 59 64 83 81 74 74 74 78 76 62 62 78 82 84 84 83 69 70 69 68 70 71 80 83 84 85
69 72 73 75 74 70 66 69 72 72 72 70 71 72 66 68 56 57 64 84 81 83 80 77 62 67 57 57 74 78 78 80 79 81 83 82 78 81 69 76 81 74 75
67 69 75 77 76 76 75 74 73 71 70 67 68 69 70 68 63 56 57 73 74 82 85 84 78 59 56 54 55 76 73 70 75 80 85 86 87 86 83 81 80 78 78
64 69 71 72 76 75 74 75 74 73 72 71 71 75 74 70 59 57 56 57 61 76 78 80 76 56 55 54 60 59 58 60 82 84 84 85 85 84 86 86 84 84 81
62 63 68 71 74 74 73 73 75 75 77 77 78 78 77 77 74 59 57 58 61 71 75 67 60 57 56 63 60 58 58 81 84 83 82 83 84 86 85 85 85 83 85
65 65 65 68 71 73 77 77 79 78 77 78 77 77 75 72 69 65 65 69 65 70 68 72 70 65 59 64 66 77 82 83 82 81 81 81 83 83 83 85 83 83 82
70 72 71 71 70 69 63 58 69 57 54 71 71 75 71 72 61 49 49 60 63 57 53 72 77 78 76 78 79 80 80 78 78 77 76 77 78 79 79 81 80 80 79
70 72 74 75 74 73 68 62 46 46 45 43 43 54 60 47 44 43 42 42 43 45 65 71 68 69 69 69 70 72 74 72 72 73 75 75 74 75 76 76 77 76 76
69 70 74 68 74 74 72 68 62 51 46 44 43 44 44 43 44 42 42 43 45 49 72 72 70 69 68 67 68 68 69 68 66 68 68 67 68 71 72 73 74 74 73
70 56 72 74 74 74 73 73 74 68 65 62 46 49 45 45 44 43 43 47 69 66 72 70 69 69 69 68 68 67 66 66 67 66 65 66 67 65 65 65 66 67 67
69 71 72 74 74 70 73 72 74 72 71 69 63 50 50 47 47 45 46 69 69 69 68 67 67 67 66 65 65 64 63 65 63 64 66 66 65 62 60 61 61 55 56
68 59 64 72 70 71 72 72 72 70 69 71 70 67 69 60 66 67 66 66 66 66 65 65 63 63 62 61 61 61 61 62 62 62 62 62 61 58 55 58 60 58 58
68 65 63 66 71 72 72 72 72 71 71 70 65 57 43 63 67 66 66 64 63 63 62 61 60 60 60 58 58 58 58 58 58 57 57 56 56 54 55 55 56 58 58
69 69 67 70 69 68 68 70 69 70 71 69 66 59 48 62 67 66 64 64 63 62 63 60 59 58 57 56 55 55 55 54 55 55 54 52 50 50 51 53 54 56 57
70 70 69 68 67 62 66 68 68 68 69 69 69 68 66 67 67 64 63 62 62 62 62 61 59 57 57 56 56 54 52 52 51 50 48 47 46 45 45 45 49 51 54
70 69 68 68 67 66 67 67 68 57 67 67 66 67 68 67 66 63 65 63 62 61 61 60 58 56 55 54 54 54 52 50 47 46 46 44 40 39 40 40 41 43 47
70 70 69 68 66 64 67 67 67 65 66 66 66 66 67 67 67 66 65 64 62 61 58 58 57 55 53 51 49 49 42 35 41 38 42 42 39 38 38 37 38 39 39
66 63 67 69 68 67 66 65 66 66 65 65 66 65 65 64 65 65 65 63 61 60 58 58 56 52 49 49 49 40 35 34 38 34 39 38 37 38 38 38 38 38 38

GFSGL_sfc_temp_123.txt.gz
Temp
77 76 76 76 77 76 76 78 78 77 77 76 76 77 78 78 78 76 76 77 76 76 76 76 77 78 76 76 76 75 75 73 69 73 75 77 78 78 81 82 84 83 82
77 76 76 76 77 77 76 78 78 77 77 77 77 77 77 77 77 76 76 78 76 76 76 75 76 82 76 76 75 74 74 74 72 70 73 76 76 83 79 80 83 89 83
74 76 75 75 75 75 76 76 77 76 76 76 77 76 76 77 77 77 77 77 76 77 78 77 77 77 75 76 75 74 74 76 73 71 72 74 76 77 77 77 78 78 86
73 72 72 71 72 74 76 77 76 76 76 75 75 76 76 77 77 76 77 76 76 78 78 79 80 79 77 76 76 74 74 71 73 71 71 72 73 76 75 73 76 75 78
71 71 71 72 71 72 73 75 75 76 76 75 75 75 75 71 69 66 70 75 76 76 77 80 81 78 76 76 77 74 73 72 71 70 70 69 69 71 71 72 71 72 76
70 71 70 70 69 71 72 72 74 75 75 75 75 73 69 69 63 64 66 71 75 74 74 76 75 71 71 70 70 69 72 71 69 70 70 69 69 71 72 71 71 70 69
69 71 71 69 69 72 72 73 73 72 72 74 71 67 63 60 60 61 65 69 74 74 75 74 75 71 68 69 70 71 69 67 69 70 69 70 70 72 72 71 70 70 71
69 69 70 70 69 70 71 70 69 70 70 70 68 65 61 59 59 60 63 68 73 71 71 69 67 65 63 65 70 72 72 69 68 71 69 70 71 72 72 72 72 71 72
68 69 70 69 68 68 67 68 69 68 67 67 66 63 60 60 58 59 66 71 70 67 65 67 66 63 61 61 68 68 69 68 69 69 67 66 66 67 67 70 69 68 68
68 69 70 69 68 67 67 68 67 66 65 63 62 62 62 62 57 58 63 65 66 64 63 63 61 62 58 57 64 66 65 65 64 68 71 71 71 73 70 72 70 67 67
66 68 68 68 67 67 67 66 64 64 63 61 59 60 61 62 60 57 58 58 62 68 68 65 64 59 58 57 54 63 63 60 64 64 67 70 73 73 74 68 68 67 66
63 64 66 68 69 69 67 66 65 64 61 59 58 57 59 62 58 57 56 58 61 65 63 64 64 56 56 56 58 60 58 60 64 65 66 66 66 69 69 69 67 68 67
61 61 63 64 62 66 67 67 66 65 62 60 60 60 58 61 60 56 56 58 59 58 57 58 58 58 57 60 61 62 62 64 63 63 60 61 62 64 67 68 68 67 67
60 60 60 57 54 56 58 56 55 54 59 62 64 62 60 56 54 53 52 53 55 54 53 55 59 59 60 61 62 62 63 61 60 58 57 60 62 62 62 63 62 64 59
61 61 61 59 52 48 47 50 52 46 46 55 54 55 58 51 49 46 45 46 44 46 47 55 57 57 56 56 57 57 58 58 58 56 56 55 55 57 59 60 60 58 57
58 61 58 59 57 55 51 47 47 47 45 44 44 50 48 48 46 44 43 43 43 46 50 54 54 53 54 53 53 53 54 55 53 54 53 53 53 56 55 55 56 53 52
58 56 60 60 61 58 57 55 52 49 47 45 44 45 45 46 45 44 43 43 47 48 52 54 54 53 51 52 52 52 51 51 51 52 52 53 54 53 52 51 51 52 51
55 56 55 57 59 61 59 58 55 52 49 50 48 47 46 46 45 44 43 46 54 51 54 55 53 53 52 51 51 51 50 51 51 49 50 49 49 49 49 48 48 47 47
59 55 55 55 55 56 57 57 56 53 54 52 51 50 48 47 46 45 44 50 51 50 51 51 51 50 49 49 48 47 47 47 47 47 47 47 47 46 44 45 45 46 46
56 59 58 53 55 56 55 57 55 56 54 52 50 52 50 48 49 50 51 50 50 49 48 48 47 47 46 46 46 46 45 45 44 44 44 43 42 42 42 42 42 41 42
54 55 60 56 55 56 55 57 56 55 57 53 53 51 48 52 50 51 50 50 49 48 47 47 45 45 45 44 44 44 44 44 43 42 41 40 40 39 40 40 40 41 42
53 53 53 53 55 55 56 57 56 55 54 52 51 49 48 52 53 53 52 50 49 48 48 47 45 44 44 43 43 43 42 40 40 39 38 38 38 38 39 39 39 41 41
54 53 52 51 52 54 54 56 56 56 54 52 52 53 53 52 52 52 51 52 51 50 48 47 46 44 44 43 43 41 39 37 37 37 36 37 37 38 39 39 39 39 40
56 55 53 52 51 51 51 52 52 52 55 53 53 53 53 53 52 53 52 51 50 50 49 47 46 46 45 43 42 39 37 36 37 37 41 39 39 40 39 38 38 38 39
61 58 55 53 52 51 51 51 51 52 53 55 55 54 53 54 51 51 51 49 49 48 48 47 45 45 44 43 42 38 36 37 37 37 40 40 38 39 38 38 38 39 40
57 55 53 52 52 52 51 51 51 51 51 54 53 52 52 52 51 51 50 49 47 47 47 46 46 46 45 43 40 39 35 36 37 34 36 37 37 38 38 39 39 39 40